Time,TemperatureF,DewpointF,PressureIn,WindDirection,WindDirectionDegrees,WindSpeedMPH,WindSpeedGustMPH,Humidity,HourlyPrecipIn,Conditions,Clouds,dailyrainin,SoftwareType,DateUTC
2013-05-22 00:01:00,75.7,70.9,29.95,East,96,0.0,0.0,85,0.00,,,0.11,Wunderground v.1.15,2013-05-22 04:01:00,
2013-05-22 00:02:00,75.7,70.9,29.95,East,96,0.0,0.0,85,0.00,,,0.11,Wunderground v.1.15,2013-05-22 04:02:00,
2013-05-22 00:04:00,75.6,70.8,29.95,East,96,0.0,0.0,85,0.00,,,0.11,Wunderground v.1.15,2013-05-22 04:04:00,
2013-05-22 00:05:00,75.6,70.8,29.95,East,96,0.0,0.0,85,0.00,,,0.11,Wunderground v.1.15,2013-05-22 04:05:00,
2013-05-22 00:09:00,75.4,70.9,29.95,East,96,0.0,0.0,86,0.00,,,0.00,Wunderground v.1.15,2013-05-22 04:09:00,
2013-05-22 00:12:00,75.3,70.8,29.94,East,96,0.0,0.0,86,0.00,,,0.00,Wunderground v.1.15,2013-05-22 04:12:00,
2013-05-22 00:14:00,75.2,70.7,29.94,East,96,0.0,0.0,86,0.00,,,0.00,Wunderground v.1.15,2013-05-22 04:14:00,
2013-05-22 00:15:00,75.2,70.7,29.94,East,96,0.0,0.0,86,0.00,,,0.00,Wunderground v.1.15,2013-05-22 04:15:00,
2013-05-22 00:20:00,75.1,71.0,29.94,ESE,113,0.0,0.0,87,0.00,,,0.00,Wunderground v.1.15,2013-05-22 04:20:00,
2013-05-22 00:21:00,75.1,71.0,29.94,ESE,119,0.0,0.0,87,0.00,,,0.00,Wunderground v.1.15,2013-05-22 04:21:00,
2013-05-22 00:22:00,75.1,71.0,29.94,ESE,115,0.0,1.0,87,0.00,,,0.00,Wunderground v.1.15,2013-05-22 04:22:00,
2013-05-22 00:23:00,75.1,71.0,29.94,ESE,115,0.0,1.0,87,0.00,,,0.00,Wunderground v.1.15,2013-05-22 04:23:00,
2013-05-22 00:25:00,75.1,71.0,29.94,SE,128,0.0,1.0,87,0.00,,,0.00,Wunderground v.1.15,2013-05-22 04:25:00,
2013-05-22 00:26:00,75.1,71.0,29.94,East,97,0.0,1.0,87,0.00,,,0.00,Wunderground v.1.15,2013-05-22 04:26:00,
2013-05-22 00:28:00,75.1,71.0,29.94,ESE,123,0.0,1.0,87,0.00,,,0.00,Wunderground v.1.15,2013-05-22 04:28:00,
2013-05-22 00:32:00,75.2,71.1,29.94,SE,129,0.0,7.0,87,0.00,,,0.00,Wunderground v.1.15,2013-05-22 04:32:00,
2013-05-22 00:34:00,75.2,71.1,29.94,East,101,0.0,7.0,87,0.00,,,0.00,Wunderground v.1.15,2013-05-22 04:34:00,
2013-05-22 00:35:00,75.2,71.1,29.94,East,101,0.0,7.0,87,0.00,,,0.00,Wunderground v.1.15,2013-05-22 04:35:00,
2013-05-22 00:36:00,75.2,71.1,29.94,SE,129,0.0,7.0,87,0.00,,,0.00,Wunderground v.1.15,2013-05-22 04:36:00,
2013-05-22 00:40:00,75.2,71.1,29.94,ESE,113,0.0,7.0,87,0.00,,,0.00,Wunderground v.1.15,2013-05-22 04:40:00,
2013-05-22 00:41:00,75.2,71.1,29.93,SE,126,0.0,7.0,87,0.00,,,0.00,Wunderground v.1.15,2013-05-22 04:41:00,
2013-05-22 00:42:00,75.2,71.1,29.93,SE,131,0.0,7.0,87,0.00,,,0.00,Wunderground v.1.15,2013-05-22 04:42:00,
2013-05-22 00:46:00,75.3,71.2,29.93,SE,138,1.0,7.0,87,0.00,,,0.00,Wunderground v.1.15,2013-05-22 04:46:00,
2013-05-22 00:48:00,75.3,71.2,29.93,ESE,122,1.0,7.0,87,0.00,,,0.00,Wunderground v.1.15,2013-05-22 04:48:00,
2013-05-22 00:49:00,75.3,71.2,29.93,ESE,118,1.0,7.0,87,0.00,,,0.00,Wunderground v.1.15,2013-05-22 04:49:00,
2013-05-22 00:52:00,75.3,71.2,29.93,South,177,1.0,7.0,87,0.00,,,0.00,Wunderground v.1.15,2013-05-22 04:52:00,
2013-05-22 00:53:00,75.3,71.2,29.93,SE,145,1.0,7.0,87,0.00,,,0.00,Wunderground v.1.15,2013-05-22 04:53:00,
2013-05-22 00:56:00,75.4,71.3,29.93,SE,134,1.0,7.0,87,0.00,,,0.00,Wunderground v.1.15,2013-05-22 04:56:00,
2013-05-22 00:59:00,75.5,71.0,29.92,SE,144,1.0,7.0,86,0.00,,,0.00,Wunderground v.1.15,2013-05-22 04:59:00,
2013-05-22 01:00:00,75.5,71.0,29.92,SE,129,1.0,2.0,86,0.00,,,0.00,Wunderground v.1.15,2013-05-22 05:00:00,
2013-05-22 01:01:00,75.5,71.0,29.92,SE,125,2.0,2.0,86,0.00,,,0.00,Wunderground v.1.15,2013-05-22 05:01:00,
2013-05-22 01:04:00,75.6,71.1,29.92,SE,131,2.0,3.0,86,0.00,,,0.00,Wunderground v.1.15,2013-05-22 05:04:00,
2013-05-22 01:05:00,75.6,71.1,29.92,SE,129,2.0,3.0,86,0.00,,,0.00,Wunderground v.1.15,2013-05-22 05:05:00,
2013-05-22 01:06:00,75.6,71.1,29.92,ESE,120,2.0,3.0,86,0.00,,,0.00,Wunderground v.1.15,2013-05-22 05:06:00,
2013-05-22 01:08:00,75.7,71.2,29.92,SE,128,2.0,3.0,86,0.00,,,0.00,Wunderground v.1.15,2013-05-22 05:08:00,
2013-05-22 01:09:00,75.7,71.2,29.92,ESE,103,2.0,3.0,86,0.00,,,0.00,Wunderground v.1.15,2013-05-22 05:09:00,
2013-05-22 01:14:00,75.6,71.1,29.92,SE,139,1.0,1.0,86,0.00,,,0.00,Wunderground v.1.15,2013-05-22 05:14:00,
2013-05-22 01:15:00,75.6,71.1,29.92,East,82,1.0,1.0,86,0.00,,,0.00,Wunderground v.1.15,2013-05-22 05:15:00,
2013-05-22 01:18:00,75.6,71.1,29.92,SE,136,1.0,2.0,86,0.00,,,0.00,Wunderground v.1.15,2013-05-22 05:18:00,
2013-05-22 01:20:00,75.7,71.2,29.92,ESE,114,1.0,1.0,86,0.00,,,0.00,Wunderground v.1.15,2013-05-22 05:20:00,
2013-05-22 01:21:00,75.7,71.2,29.92,ENE,60,1.0,2.0,86,0.00,,,0.00,Wunderground v.1.15,2013-05-22 05:21:00,
2013-05-22 01:23:00,75.7,71.2,29.92,ESE,115,1.0,2.0,86,0.00,,,0.00,Wunderground v.1.15,2013-05-22 05:23:00,
2013-05-22 01:25:00,75.8,71.3,29.92,East,99,1.0,2.0,86,0.00,,,0.00,Wunderground v.1.15,2013-05-22 05:25:00,
2013-05-22 01:27:00,75.9,71.4,29.92,ESE,115,1.0,2.0,86,0.00,,,0.00,Wunderground v.1.15,2013-05-22 05:27:00,
2013-05-22 01:28:00,75.8,71.3,29.92,ESE,104,1.0,2.0,86,0.00,,,0.00,Wunderground v.1.15,2013-05-22 05:28:00,
2013-05-22 01:30:00,75.9,71.4,29.92,SE,127,1.0,2.0,86,0.00,,,0.00,Wunderground v.1.15,2013-05-22 05:30:00,
2013-05-22 01:31:00,75.9,71.4,29.92,East,97,1.0,2.0,86,0.00,,,0.00,Wunderground v.1.15,2013-05-22 05:31:00,
2013-05-22 01:33:00,75.9,71.4,29.92,SE,145,1.0,2.0,86,0.00,,,0.00,Wunderground v.1.15,2013-05-22 05:33:00,
2013-05-22 01:37:00,76.0,71.8,29.92,East,99,1.0,3.0,87,0.00,,,0.00,Wunderground v.1.15,2013-05-22 05:37:00,
2013-05-22 01:39:00,76.0,71.8,29.92,SSE,148,1.0,3.0,87,0.00,,,0.00,Wunderground v.1.15,2013-05-22 05:39:00,
2013-05-22 01:41:00,76.1,71.9,29.92,SE,144,1.0,2.0,87,0.00,,,0.00,Wunderground v.1.15,2013-05-22 05:41:00,
2013-05-22 01:43:00,76.1,71.9,29.92,ESE,103,1.0,2.0,87,0.00,,,0.00,Wunderground v.1.15,2013-05-22 05:43:00,
2013-05-22 01:44:00,76.1,71.9,29.91,ESE,120,1.0,2.0,87,0.00,,,0.00,Wunderground v.1.15,2013-05-22 05:44:00,
2013-05-22 01:45:00,76.1,71.9,29.92,SSW,209,1.0,2.0,87,0.00,,,0.00,Wunderground v.1.15,2013-05-22 05:45:00,
2013-05-22 01:46:00,76.1,71.9,29.91,SSE,147,1.0,2.0,87,0.00,,,0.00,Wunderground v.1.15,2013-05-22 05:46:00,
2013-05-22 01:49:00,76.1,72.3,29.91,SE,126,1.0,2.0,88,0.00,,,0.00,Wunderground v.1.15,2013-05-22 05:49:00,
2013-05-22 01:50:00,76.1,72.3,29.91,SE,139,1.0,3.0,88,0.00,,,0.00,Wunderground v.1.15,2013-05-22 05:50:00,
2013-05-22 01:52:00,76.1,72.6,29.91,SE,135,1.0,4.0,89,0.00,,,0.00,Wunderground v.1.15,2013-05-22 05:52:00,
2013-05-22 01:54:00,76.0,72.5,29.91,ESE,110,2.0,4.0,89,0.00,,,0.00,Wunderground v.1.15,2013-05-22 05:54:00,
2013-05-22 01:56:00,76.0,72.5,29.91,East,88,2.0,4.0,89,0.00,,,0.00,Wunderground v.1.15,2013-05-22 05:56:00,
2013-05-22 02:00:00,75.7,72.2,29.91,SE,129,3.0,3.0,89,0.00,,,0.00,Wunderground v.1.15,2013-05-22 06:00:00,
2013-05-22 02:04:00,75.5,72.4,29.91,SE,136,3.0,4.0,90,0.00,,,0.00,Wunderground v.1.15,2013-05-22 06:04:00,
2013-05-22 02:05:00,75.5,72.4,29.91,SE,137,2.0,4.0,90,0.00,,,0.00,Wunderground v.1.15,2013-05-22 06:05:00,
2013-05-22 02:06:00,75.4,72.3,29.91,ESE,122,2.0,4.0,90,0.00,,,0.00,Wunderground v.1.15,2013-05-22 06:06:00,
2013-05-22 02:07:00,75.4,72.6,29.91,ESE,117,2.0,4.0,91,0.00,,,0.00,Wunderground v.1.15,2013-05-22 06:07:00,
2013-05-22 02:09:00,75.3,72.5,29.91,ESE,110,2.0,4.0,91,0.00,,,0.00,Wunderground v.1.15,2013-05-22 06:09:00,
2013-05-22 02:11:00,75.2,72.4,29.91,ESE,108,1.0,1.0,91,0.00,,,0.00,Wunderground v.1.15,2013-05-22 06:11:00,
2013-05-22 02:13:00,75.1,72.3,29.90,SE,124,1.0,1.0,91,0.00,,,0.00,Wunderground v.1.15,2013-05-22 06:13:00,
2013-05-22 02:14:00,75.1,72.3,29.90,SE,127,1.0,1.0,91,0.00,,,0.00,Wunderground v.1.15,2013-05-22 06:14:00,
2013-05-22 02:15:00,75.1,72.3,29.90,SE,129,1.0,1.0,91,0.00,,,0.00,Wunderground v.1.15,2013-05-22 06:15:00,
2013-05-22 02:16:00,75.0,72.5,29.90,ESE,115,1.0,1.0,92,0.00,,,0.00,Wunderground v.1.15,2013-05-22 06:16:00,
2013-05-22 02:18:00,75.0,72.5,29.90,ESE,115,0.0,1.0,92,0.00,,,0.00,Wunderground v.1.15,2013-05-22 06:18:00,
2013-05-22 02:21:00,74.9,72.4,29.90,SE,133,0.0,0.0,92,0.00,,,0.00,Wunderground v.1.15,2013-05-22 06:21:00,
2013-05-22 02:22:00,74.8,72.3,29.90,SE,133,0.0,0.0,92,0.00,,,0.00,Wunderground v.1.15,2013-05-22 06:22:00,
2013-05-22 02:24:00,74.8,72.3,29.90,SE,133,0.0,0.0,92,0.00,,,0.00,Wunderground v.1.15,2013-05-22 06:24:00,
2013-05-22 02:25:00,74.8,72.3,29.90,SE,133,0.0,0.0,92,0.00,,,0.00,Wunderground v.1.15,2013-05-22 06:25:00,
2013-05-22 02:28:00,74.7,72.2,29.90,SE,133,0.0,0.0,92,0.00,,,0.00,Wunderground v.1.15,2013-05-22 06:28:00,
2013-05-22 02:32:00,74.6,72.4,29.90,SE,133,0.0,3.0,93,0.00,,,0.00,Wunderground v.1.15,2013-05-22 06:32:00,
2013-05-22 02:33:00,74.5,72.3,29.90,SE,133,0.0,3.0,93,0.00,,,0.00,Wunderground v.1.15,2013-05-22 06:33:00,
2013-05-22 02:34:00,74.5,72.0,29.90,SE,133,0.0,3.0,92,0.00,,,0.00,Wunderground v.1.15,2013-05-22 06:34:00,
2013-05-22 02:36:00,74.4,72.2,29.90,SE,133,0.0,3.0,93,0.00,,,0.00,Wunderground v.1.15,2013-05-22 06:36:00,
2013-05-22 02:40:00,74.3,72.1,29.90,SE,133,0.0,3.0,93,0.00,,,0.00,Wunderground v.1.15,2013-05-22 06:40:00,
2013-05-22 02:41:00,74.3,72.1,29.90,SE,133,0.0,3.0,93,0.00,,,0.00,Wunderground v.1.15,2013-05-22 06:41:00,
2013-05-22 02:43:00,74.2,72.0,29.90,SE,133,0.0,3.0,93,0.00,,,0.00,Wunderground v.1.15,2013-05-22 06:43:00,
2013-05-22 02:44:00,74.2,72.0,29.90,SE,133,0.0,3.0,93,0.00,,,0.00,Wunderground v.1.15,2013-05-22 06:44:00,
2013-05-22 02:45:00,74.2,72.0,29.90,SE,133,0.0,3.0,93,0.00,,,0.00,Wunderground v.1.15,2013-05-22 06:45:00,
2013-05-22 02:49:00,74.0,71.8,29.90,SE,133,0.0,3.0,93,0.00,,,0.00,Wunderground v.1.15,2013-05-22 06:49:00,
2013-05-22 02:50:00,74.0,71.8,29.90,SE,133,0.0,3.0,93,0.00,,,0.00,Wunderground v.1.15,2013-05-22 06:50:00,
2013-05-22 02:51:00,74.0,71.8,29.90,SE,133,0.0,3.0,93,0.00,,,0.00,Wunderground v.1.15,2013-05-22 06:51:00,
2013-05-22 02:52:00,73.9,72.1,29.90,SE,133,0.0,3.0,94,0.00,,,0.00,Wunderground v.1.15,2013-05-22 06:52:00,
2013-05-22 02:54:00,74.0,72.2,29.90,SE,133,0.0,3.0,94,0.00,,,0.00,Wunderground v.1.15,2013-05-22 06:54:00,
2013-05-22 02:55:00,74.0,72.2,29.90,SE,133,0.0,3.0,94,0.00,,,0.00,Wunderground v.1.15,2013-05-22 06:55:00,
2013-05-22 02:59:00,74.0,72.2,29.90,SE,133,0.0,3.0,94,0.00,,,0.00,Wunderground v.1.15,2013-05-22 06:59:00,
2013-05-22 03:00:00,74.0,72.2,29.90,SE,133,0.0,0.0,94,0.00,,,0.00,Wunderground v.1.15,2013-05-22 07:00:00,
2013-05-22 03:01:00,74.0,72.2,29.90,SE,133,0.0,0.0,94,0.00,,,0.00,Wunderground v.1.15,2013-05-22 07:01:00,
2013-05-22 03:04:00,73.8,72.0,29.90,SE,133,0.0,0.0,94,0.00,,,0.00,Wunderground v.1.15,2013-05-22 07:04:00,
2013-05-22 03:05:00,73.8,72.0,29.90,SE,133,0.0,0.0,94,0.00,,,0.00,Wunderground v.1.15,2013-05-22 07:05:00,
2013-05-22 03:06:00,73.7,71.9,29.90,SE,133,0.0,0.0,94,0.00,,,0.00,Wunderground v.1.15,2013-05-22 07:06:00,
2013-05-22 03:09:00,73.5,71.7,29.90,SE,133,0.0,0.0,94,0.00,,,0.00,Wunderground v.1.15,2013-05-22 07:09:00,
2013-05-22 03:11:00,73.5,72.0,29.90,SE,133,0.0,0.0,95,0.00,,,0.00,Wunderground v.1.15,2013-05-22 07:11:00,
2013-05-22 03:14:00,73.7,72.2,29.90,SE,131,0.0,0.0,95,0.00,,,0.00,Wunderground v.1.15,2013-05-22 07:14:00,
2013-05-22 03:15:00,73.8,72.3,29.90,SE,131,0.0,0.0,95,0.00,,,0.00,Wunderground v.1.15,2013-05-22 07:15:00,
2013-05-22 03:18:00,73.9,72.4,29.90,SE,131,0.0,0.0,95,0.00,,,0.00,Wunderground v.1.15,2013-05-22 07:18:00,
2013-05-22 03:20:00,73.8,72.3,29.90,SE,131,0.0,0.0,95,0.00,,,0.00,Wunderground v.1.15,2013-05-22 07:20:00,
2013-05-22 03:21:00,73.9,72.4,29.90,SE,131,0.0,0.0,95,0.00,,,0.00,Wunderground v.1.15,2013-05-22 07:21:00,
2013-05-22 03:22:00,73.8,72.3,29.90,SE,131,0.0,0.0,95,0.00,,,0.00,Wunderground v.1.15,2013-05-22 07:22:00,
2013-05-22 03:23:00,73.8,72.3,29.90,SE,131,0.0,0.0,95,0.00,,,0.00,Wunderground v.1.15,2013-05-22 07:23:00,
2013-05-22 03:26:00,73.8,72.3,29.90,SE,131,0.0,0.0,95,0.00,,,0.00,Wunderground v.1.15,2013-05-22 07:26:00,
2013-05-22 03:28:00,73.9,72.4,29.90,SE,131,0.0,0.0,95,0.00,,,0.00,Wunderground v.1.15,2013-05-22 07:28:00,
2013-05-22 03:30:00,73.9,72.7,29.90,SE,131,0.0,0.0,96,0.00,,,0.00,Wunderground v.1.15,2013-05-22 07:30:00,
2013-05-22 03:34:00,74.0,72.8,29.90,ESE,111,0.0,2.0,96,0.00,,,0.00,Wunderground v.1.15,2013-05-22 07:34:00,
2013-05-22 03:38:00,74.1,72.9,29.90,East,94,0.0,2.0,96,0.00,,,0.00,Wunderground v.1.15,2013-05-22 07:38:00,
2013-05-22 03:39:00,74.1,72.9,29.90,East,94,0.0,2.0,96,0.00,,,0.00,Wunderground v.1.15,2013-05-22 07:39:00,
2013-05-22 03:40:00,74.1,72.9,29.90,East,94,0.0,2.0,96,0.00,,,0.00,Wunderground v.1.15,2013-05-22 07:40:00,
2013-05-22 03:42:00,74.2,73.0,29.90,NE,56,0.0,2.0,96,0.00,,,0.00,Wunderground v.1.15,2013-05-22 07:42:00,
2013-05-22 03:45:00,74.3,72.8,29.90,ESE,108,0.0,2.0,95,0.00,,,0.00,Wunderground v.1.15,2013-05-22 07:45:00,
2013-05-22 03:47:00,74.3,72.8,29.90,East,84,0.0,2.0,95,0.00,,,0.00,Wunderground v.1.15,2013-05-22 07:47:00,
2013-05-22 03:48:00,74.4,72.9,29.90,East,84,0.0,2.0,95,0.00,,,0.00,Wunderground v.1.15,2013-05-22 07:48:00,
2013-05-22 03:50:00,74.4,72.9,29.90,SE,134,0.0,2.0,95,0.00,,,0.00,Wunderground v.1.15,2013-05-22 07:50:00,
2013-05-22 03:52:00,74.4,72.9,29.90,East,82,0.0,2.0,95,0.00,,,0.00,Wunderground v.1.15,2013-05-22 07:52:00,
2013-05-22 03:54:00,74.5,73.0,29.90,SE,129,0.0,2.0,95,0.00,,,0.00,Wunderground v.1.15,2013-05-22 07:54:00,
2013-05-22 03:56:00,74.5,73.0,29.90,SSE,152,0.0,2.0,95,0.00,,,0.00,Wunderground v.1.15,2013-05-22 07:56:00,
2013-05-22 03:59:00,74.5,73.0,29.90,SE,127,0.0,2.0,95,0.00,,,0.00,Wunderground v.1.15,2013-05-22 07:59:00,
2013-05-22 04:00:00,74.5,73.0,29.90,East,83,0.0,0.0,95,0.00,,,0.00,Wunderground v.1.15,2013-05-22 08:00:00,
2013-05-22 04:03:00,74.5,72.7,29.90,ESE,120,0.0,2.0,94,0.00,,,0.00,Wunderground v.1.15,2013-05-22 08:03:00,
2013-05-22 04:05:00,74.5,72.7,29.90,ESE,115,0.0,2.0,94,0.00,,,0.00,Wunderground v.1.15,2013-05-22 08:05:00,
2013-05-22 04:07:00,74.6,72.8,29.90,ESE,115,0.0,2.0,94,0.00,,,0.00,Wunderground v.1.15,2013-05-22 08:07:00,
2013-05-22 04:08:00,74.6,72.8,29.90,ESE,119,0.0,2.0,94,0.00,,,0.00,Wunderground v.1.15,2013-05-22 08:08:00,
2013-05-22 04:10:00,74.7,72.9,29.90,ESE,117,0.0,0.0,94,0.00,,,0.00,Wunderground v.1.15,2013-05-22 08:10:00,
2013-05-22 04:12:00,74.7,72.9,29.90,SE,133,0.0,1.0,94,0.00,,,0.00,Wunderground v.1.15,2013-05-22 08:12:00,
2013-05-22 04:15:00,74.7,72.9,29.90,SE,133,0.0,1.0,94,0.00,,,0.00,Wunderground v.1.15,2013-05-22 08:15:00,
2013-05-22 04:17:00,74.7,72.9,29.90,SE,133,0.0,1.0,94,0.00,,,0.00,Wunderground v.1.15,2013-05-22 08:17:00,
2013-05-22 04:18:00,74.7,72.9,29.90,ESE,119,0.0,1.0,94,0.00,,,0.00,Wunderground v.1.15,2013-05-22 08:18:00,
2013-05-22 04:19:00,74.6,72.8,29.90,SE,137,0.0,1.0,94,0.00,,,0.00,Wunderground v.1.15,2013-05-22 08:19:00,
2013-05-22 04:22:00,74.7,72.9,29.90,SE,131,0.0,1.0,94,0.00,,,0.00,Wunderground v.1.15,2013-05-22 08:22:00,
2013-05-22 04:24:00,74.7,72.5,29.90,SE,127,0.0,1.0,93,0.00,,,0.00,Wunderground v.1.15,2013-05-22 08:24:00,
2013-05-22 04:28:00,74.7,72.5,29.90,ESE,108,0.0,1.0,93,0.00,,,0.00,Wunderground v.1.15,2013-05-22 08:28:00,
2013-05-22 04:30:00,74.7,72.5,29.90,South,176,0.0,0.0,93,0.00,,,0.00,Wunderground v.1.15,2013-05-22 08:30:00,
2013-05-22 04:31:00,74.6,72.4,29.90,South,175,0.0,1.0,93,0.00,,,0.00,Wunderground v.1.15,2013-05-22 08:31:00,
2013-05-22 04:35:00,74.6,72.4,29.90,SSE,151,0.0,1.0,93,0.00,,,0.00,Wunderground v.1.15,2013-05-22 08:35:00,
2013-05-22 04:36:00,74.6,72.4,29.90,ENE,71,0.0,1.0,93,0.00,,,0.00,Wunderground v.1.15,2013-05-22 08:36:00,
2013-05-22 04:37:00,74.6,72.4,29.90,East,91,0.0,1.0,93,0.00,,,0.00,Wunderground v.1.15,2013-05-22 08:37:00,
2013-05-22 04:38:00,74.6,72.4,29.90,ESE,108,0.0,1.0,93,0.00,,,0.00,Wunderground v.1.15,2013-05-22 08:38:00,
2013-05-22 04:39:00,74.6,72.4,29.91,ESE,113,0.0,1.0,93,0.00,,,0.00,Wunderground v.1.15,2013-05-22 08:39:00,
2013-05-22 04:41:00,74.6,72.4,29.90,East,86,0.0,1.0,93,0.00,,,0.00,Wunderground v.1.15,2013-05-22 08:41:00,
2013-05-22 04:43:00,74.6,72.4,29.90,East,86,0.0,1.0,93,0.00,,,0.00,Wunderground v.1.15,2013-05-22 08:43:00,
2013-05-22 04:45:00,74.6,72.4,29.90,ESE,110,0.0,1.0,93,0.00,,,0.00,Wunderground v.1.15,2013-05-22 08:45:00,
2013-05-22 04:46:00,74.6,72.4,29.91,ESE,110,0.0,1.0,93,0.00,,,0.00,Wunderground v.1.15,2013-05-22 08:46:00,
2013-05-22 04:49:00,74.6,72.4,29.91,SE,129,0.0,1.0,93,0.00,,,0.00,Wunderground v.1.15,2013-05-22 08:49:00,
2013-05-22 04:50:00,74.6,72.4,29.91,SSE,147,0.0,1.0,93,0.00,,,0.00,Wunderground v.1.15,2013-05-22 08:50:00,
2013-05-22 04:52:00,74.6,72.4,29.91,SE,127,0.0,1.0,93,0.00,,,0.00,Wunderground v.1.15,2013-05-22 08:52:00,
2013-05-22 04:54:00,74.6,72.4,29.91,ESE,112,0.0,1.0,93,0.00,,,0.00,Wunderground v.1.15,2013-05-22 08:54:00,
2013-05-22 04:56:00,74.6,72.4,29.90,SE,124,0.0,1.0,93,0.00,,,0.00,Wunderground v.1.15,2013-05-22 08:56:00,
2013-05-22 04:58:00,74.6,72.4,29.91,ESE,106,0.0,1.0,93,0.00,,,0.00,Wunderground v.1.15,2013-05-22 08:58:00,
2013-05-22 04:59:00,74.6,72.4,29.90,East,101,0.0,1.0,93,0.00,,,0.00,Wunderground v.1.15,2013-05-22 08:59:00,
2013-05-22 05:01:00,74.7,72.5,29.90,ESE,105,0.0,0.0,93,0.00,,,0.00,Wunderground v.1.15,2013-05-22 09:01:00,
2013-05-22 05:05:00,74.7,72.5,29.90,East,98,0.0,0.0,93,0.00,,,0.00,Wunderground v.1.15,2013-05-22 09:05:00,
2013-05-22 05:07:00,74.7,72.5,29.90,SE,129,0.0,0.0,93,0.00,,,0.00,Wunderground v.1.15,2013-05-22 09:07:00,
2013-05-22 05:08:00,74.7,72.5,29.90,ESE,113,0.0,1.0,93,0.00,,,0.00,Wunderground v.1.15,2013-05-22 09:08:00,
2013-05-22 05:09:00,74.7,72.5,29.90,East,96,0.0,2.0,93,0.00,,,0.00,Wunderground v.1.15,2013-05-22 09:09:00,
2013-05-22 05:11:00,74.7,72.5,29.90,East,86,0.0,0.0,93,0.00,,,0.00,Wunderground v.1.15,2013-05-22 09:11:00,
2013-05-22 05:13:00,74.7,72.5,29.90,East,86,0.0,0.0,93,0.00,,,0.00,Wunderground v.1.15,2013-05-22 09:13:00,
2013-05-22 05:15:00,74.7,72.5,29.90,East,86,0.0,0.0,93,0.00,,,0.00,Wunderground v.1.15,2013-05-22 09:15:00,
2013-05-22 05:16:00,74.6,72.4,29.90,East,86,0.0,0.0,93,0.00,,,0.00,Wunderground v.1.15,2013-05-22 09:16:00,
2013-05-22 05:20:00,74.6,72.4,29.90,East,86,0.0,0.0,93,0.00,,,0.00,Wunderground v.1.15,2013-05-22 09:20:00,
2013-05-22 05:21:00,74.6,72.4,29.90,East,86,0.0,0.0,93,0.00,,,0.00,Wunderground v.1.15,2013-05-22 09:21:00,
2013-05-22 05:26:00,74.4,72.2,29.90,East,86,0.0,0.0,93,0.00,,,0.00,Wunderground v.1.15,2013-05-22 09:26:00,
2013-05-22 05:27:00,74.4,72.2,29.90,East,86,0.0,0.0,93,0.00,,,0.00,Wunderground v.1.15,2013-05-22 09:27:00,
2013-05-22 05:28:00,74.4,72.2,29.90,East,86,0.0,0.0,93,0.00,,,0.00,Wunderground v.1.15,2013-05-22 09:28:00,
2013-05-22 05:29:00,74.4,72.2,29.90,East,86,0.0,0.0,93,0.00,,,0.00,Wunderground v.1.15,2013-05-22 09:29:00,
2013-05-22 05:30:00,74.3,72.1,29.90,East,86,0.0,0.0,93,0.00,,,0.00,Wunderground v.1.15,2013-05-22 09:30:00,
2013-05-22 05:32:00,74.2,72.0,29.90,East,86,0.0,2.0,93,0.00,,,0.00,Wunderground v.1.15,2013-05-22 09:32:00,
2013-05-22 05:36:00,74.2,72.4,29.89,East,86,0.0,2.0,94,0.00,,,0.00,Wunderground v.1.15,2013-05-22 09:36:00,
2013-05-22 05:37:00,74.1,72.3,29.89,East,86,0.0,2.0,94,0.00,,,0.00,Wunderground v.1.15,2013-05-22 09:37:00,
2013-05-22 05:39:00,74.1,72.3,29.89,East,86,0.0,2.0,94,0.00,,,0.00,Wunderground v.1.15,2013-05-22 09:39:00,
2013-05-22 05:40:00,74.1,72.3,29.89,East,86,0.0,2.0,94,0.00,,,0.00,Wunderground v.1.15,2013-05-22 09:40:00,
2013-05-22 05:43:00,74.0,72.2,29.89,East,86,0.0,2.0,94,0.00,,,0.00,Wunderground v.1.15,2013-05-22 09:43:00,
2013-05-22 05:44:00,74.0,72.2,29.89,East,86,0.0,2.0,94,0.00,,,0.00,Wunderground v.1.15,2013-05-22 09:44:00,
2013-05-22 05:45:00,74.0,72.2,29.89,ESE,122,0.0,2.0,94,0.00,,,0.00,Wunderground v.1.15,2013-05-22 09:45:00,
2013-05-22 05:47:00,74.0,72.5,29.90,ESE,122,0.0,2.0,95,0.00,,,0.00,Wunderground v.1.15,2013-05-22 09:47:00,
2013-05-22 05:49:00,74.0,72.5,29.90,ESE,113,0.0,2.0,95,0.00,,,0.00,Wunderground v.1.15,2013-05-22 09:49:00,
2013-05-22 05:50:00,73.9,72.4,29.89,ESE,104,0.0,2.0,95,0.00,,,0.00,Wunderground v.1.15,2013-05-22 09:50:00,
2013-05-22 05:52:00,73.9,72.4,29.89,East,98,0.0,2.0,95,0.00,,,0.00,Wunderground v.1.15,2013-05-22 09:52:00,
2013-05-22 05:54:00,74.0,72.5,29.89,East,98,0.0,2.0,95,0.00,,,0.00,Wunderground v.1.15,2013-05-22 09:54:00,
2013-05-22 05:55:00,74.0,72.2,29.89,East,98,0.0,2.0,94,0.00,,,0.00,Wunderground v.1.15,2013-05-22 09:55:00,
2013-05-22 05:57:00,74.0,72.5,29.89,East,98,0.0,2.0,95,0.00,,,0.00,Wunderground v.1.15,2013-05-22 09:57:00,
2013-05-22 06:00:00,74.0,72.5,29.90,East,98,0.0,0.0,95,0.00,,,0.00,Wunderground v.1.15,2013-05-22 10:00:00,
2013-05-22 06:01:00,74.0,72.5,29.90,East,87,0.0,0.0,95,0.00,,,0.00,Wunderground v.1.15,2013-05-22 10:01:00,
2013-05-22 06:02:00,74.0,72.5,29.90,East,82,0.0,3.0,95,0.00,,,0.00,Wunderground v.1.15,2013-05-22 10:02:00,
2013-05-22 06:04:00,74.1,72.6,29.90,SE,128,1.0,5.0,95,0.00,,,0.00,Wunderground v.1.15,2013-05-22 10:04:00,
2013-05-22 06:06:00,74.2,72.4,29.90,East,99,1.0,5.0,94,0.00,,,0.00,Wunderground v.1.15,2013-05-22 10:06:00,
2013-05-22 06:07:00,74.3,72.5,29.90,SE,143,1.0,5.0,94,0.00,,,0.00,Wunderground v.1.15,2013-05-22 10:07:00,
2013-05-22 06:08:00,74.4,72.6,29.90,SE,129,2.0,5.0,94,0.00,,,0.00,Wunderground v.1.15,2013-05-22 10:08:00,
2013-05-22 06:10:00,74.6,72.8,29.90,SE,128,2.0,4.0,94,0.00,,,0.00,Wunderground v.1.15,2013-05-22 10:10:00,
2013-05-22 06:11:00,74.6,72.4,29.90,ESE,113,2.0,4.0,93,0.00,,,0.00,Wunderground v.1.15,2013-05-22 10:11:00,
2013-05-22 06:12:00,74.7,72.5,29.90,SE,124,3.0,4.0,93,0.00,,,0.00,Wunderground v.1.15,2013-05-22 10:12:00,
2013-05-22 06:15:00,74.9,72.7,29.90,SE,127,3.0,4.0,93,0.00,,,0.00,Wunderground v.1.15,2013-05-22 10:15:00,
2013-05-22 06:16:00,74.9,72.7,29.90,ESE,122,3.0,4.0,93,0.00,,,0.00,Wunderground v.1.15,2013-05-22 10:16:00,
2013-05-22 06:17:00,74.9,72.7,29.90,ESE,117,3.0,4.0,93,0.00,,,0.00,Wunderground v.1.15,2013-05-22 10:17:00,
2013-05-22 06:21:00,75.0,72.8,29.90,SE,133,3.0,3.0,93,0.00,,,0.00,Wunderground v.1.15,2013-05-22 10:21:00,
2013-05-22 06:22:00,75.0,72.8,29.91,SSE,161,3.0,3.0,93,0.00,,,0.00,Wunderground v.1.15,2013-05-22 10:22:00,
2013-05-22 06:25:00,75.0,72.8,29.90,ESE,116,3.0,3.0,93,0.00,,,0.00,Wunderground v.1.15,2013-05-22 10:25:00,
2013-05-22 06:27:00,75.0,72.8,29.90,East,100,3.0,3.0,93,0.00,,,0.00,Wunderground v.1.15,2013-05-22 10:27:00,
2013-05-22 06:28:00,75.0,72.8,29.91,ESE,110,3.0,3.0,93,0.00,,,0.00,Wunderground v.1.15,2013-05-22 10:28:00,
2013-05-22 06:30:00,75.0,72.8,29.91,ESE,110,2.0,2.0,93,0.00,,,0.00,Wunderground v.1.15,2013-05-22 10:30:00,
2013-05-22 06:33:00,75.0,72.5,29.91,SE,129,2.0,3.0,92,0.00,,,0.00,Wunderground v.1.15,2013-05-22 10:33:00,
2013-05-22 06:35:00,75.0,72.5,29.91,East,80,2.0,3.0,92,0.00,,,0.00,Wunderground v.1.15,2013-05-22 10:35:00,
2013-05-22 06:37:00,75.0,72.5,29.91,SE,140,2.0,3.0,92,0.00,,,0.00,Wunderground v.1.15,2013-05-22 10:37:00,
2013-05-22 06:38:00,75.0,72.5,29.91,ESE,115,2.0,3.0,92,0.00,,,0.00,Wunderground v.1.15,2013-05-22 10:38:00,
2013-05-22 06:41:00,75.0,72.5,29.91,SE,130,2.0,2.0,92,0.00,,,0.00,Wunderground v.1.15,2013-05-22 10:41:00,
2013-05-22 06:43:00,75.0,72.5,29.91,SE,141,2.0,2.0,92,0.00,,,0.00,Wunderground v.1.15,2013-05-22 10:43:00,
2013-05-22 06:44:00,74.9,72.4,29.91,ESE,117,2.0,2.0,92,0.00,,,0.00,Wunderground v.1.15,2013-05-22 10:44:00,
2013-05-22 06:47:00,74.9,72.4,29.91,SE,129,1.0,2.0,92,0.00,,,0.00,Wunderground v.1.15,2013-05-22 10:47:00,
2013-05-22 06:48:00,74.9,72.4,29.91,ESE,115,1.0,2.0,92,0.00,,,0.00,Wunderground v.1.15,2013-05-22 10:48:00,
2013-05-22 06:49:00,74.8,72.3,29.91,ENE,71,1.0,3.0,92,0.00,,,0.00,Wunderground v.1.15,2013-05-22 10:49:00,
2013-05-22 06:50:00,74.8,72.3,29.91,SE,127,1.0,2.0,92,0.00,,,0.00,Wunderground v.1.15,2013-05-22 10:50:00,
2013-05-22 06:55:00,74.9,72.1,29.92,East,94,2.0,3.0,91,0.00,,,0.00,Wunderground v.1.15,2013-05-22 10:55:00,
2013-05-22 06:56:00,74.9,71.8,29.92,ENE,70,2.0,3.0,90,0.00,,,0.00,Wunderground v.1.15,2013-05-22 10:56:00,
2013-05-22 07:00:00,75.0,71.9,29.92,SE,127,2.0,2.0,90,0.00,,,0.00,Wunderground v.1.15,2013-05-22 11:00:00,
2013-05-22 07:01:00,75.0,71.9,29.91,SE,127,2.0,2.0,90,0.00,,,0.00,Wunderground v.1.15,2013-05-22 11:01:00,
2013-05-22 07:02:00,75.0,71.9,29.92,East,82,2.0,2.0,90,0.00,,,0.00,Wunderground v.1.15,2013-05-22 11:02:00,
2013-05-22 07:04:00,75.0,71.9,29.91,ESE,120,1.0,2.0,90,0.00,,,0.00,Wunderground v.1.15,2013-05-22 11:04:00,
2013-05-22 07:06:00,74.9,71.8,29.92,ESE,120,1.0,2.0,90,0.00,,,0.00,Wunderground v.1.15,2013-05-22 11:06:00,
2013-05-22 07:07:00,75.0,72.2,29.92,ESE,120,0.0,2.0,91,0.00,,,0.00,Wunderground v.1.15,2013-05-22 11:07:00,
2013-05-22 07:09:00,74.9,72.1,29.92,ESE,120,0.0,2.0,91,0.00,,,0.00,Wunderground v.1.15,2013-05-22 11:09:00,
2013-05-22 07:12:00,74.9,72.1,29.92,ESE,120,0.0,0.0,91,0.00,,,0.00,Wunderground v.1.15,2013-05-22 11:12:00,
2013-05-22 07:15:00,74.9,72.1,29.92,ESE,120,0.0,0.0,91,0.00,,,0.00,Wunderground v.1.15,2013-05-22 11:15:00,
2013-05-22 07:16:00,74.9,72.4,29.92,SE,131,0.0,1.0,92,0.00,,,0.00,Wunderground v.1.15,2013-05-22 11:16:00,
2013-05-22 07:18:00,74.9,72.4,29.92,SSW,193,0.0,4.0,92,0.00,,,0.00,Wunderground v.1.15,2013-05-22 11:18:00,
2013-05-22 07:20:00,75.0,72.5,29.92,South,186,1.0,1.0,92,0.00,,,0.00,Wunderground v.1.15,2013-05-22 11:20:00,
2013-05-22 07:25:00,75.0,72.5,29.92,South,171,2.0,3.0,92,0.00,,,0.01,Wunderground v.1.15,2013-05-22 11:25:00,
2013-05-22 07:27:00,74.9,71.8,29.92,SSE,148,2.0,3.0,90,0.00,,,0.01,Wunderground v.1.15,2013-05-22 11:27:00,
2013-05-22 07:29:00,74.7,71.2,29.92,SE,125,2.0,3.0,89,0.00,,,0.01,Wunderground v.1.15,2013-05-22 11:29:00,
2013-05-22 07:30:00,74.6,71.1,29.92,SE,146,2.0,2.0,89,0.00,,,0.01,Wunderground v.1.15,2013-05-22 11:30:00,
2013-05-22 07:34:00,74.3,71.2,29.92,SSE,155,2.0,6.0,90,0.00,,,0.01,Wunderground v.1.15,2013-05-22 11:34:00,
2013-05-22 07:35:00,74.3,70.8,29.92,SE,144,1.0,6.0,89,0.00,,,0.01,Wunderground v.1.15,2013-05-22 11:35:00,
2013-05-22 07:36:00,74.2,70.7,29.92,SSW,198,1.0,6.0,89,0.00,,,0.01,Wunderground v.1.15,2013-05-22 11:36:00,
2013-05-22 07:37:00,74.1,70.3,29.92,SSE,165,1.0,6.0,88,0.00,,,0.01,Wunderground v.1.15,2013-05-22 11:37:00,
2013-05-22 07:40:00,73.9,70.1,29.92,SSE,150,1.0,1.0,88,0.00,,,0.01,Wunderground v.1.15,2013-05-22 11:40:00,
2013-05-22 07:42:00,73.8,70.0,29.92,SE,146,1.0,6.0,88,0.00,,,0.01,Wunderground v.1.15,2013-05-22 11:42:00,
2013-05-22 07:43:00,73.7,69.9,29.92,SSE,155,1.0,6.0,88,0.00,,,0.01,Wunderground v.1.15,2013-05-22 11:43:00,
2013-05-22 07:46:00,73.7,70.3,29.92,SSE,155,0.0,6.0,89,0.00,,,0.01,Wunderground v.1.15,2013-05-22 11:46:00,
2013-05-22 07:47:00,73.7,70.3,29.92,SSE,155,0.0,6.0,89,0.00,,,0.01,Wunderground v.1.15,2013-05-22 11:47:00,
2013-05-22 07:50:00,73.6,70.2,29.92,SSE,155,0.0,6.0,89,0.00,,,0.01,Wunderground v.1.15,2013-05-22 11:50:00,
2013-05-22 07:51:00,73.6,70.2,29.92,SSE,155,0.0,6.0,89,0.00,,,0.01,Wunderground v.1.15,2013-05-22 11:51:00,
2013-05-22 07:53:00,73.6,70.2,29.92,South,169,0.0,6.0,89,0.00,,,0.01,Wunderground v.1.15,2013-05-22 11:53:00,
2013-05-22 07:54:00,73.5,70.1,29.91,South,179,0.0,6.0,89,0.00,,,0.01,Wunderground v.1.15,2013-05-22 11:54:00,
2013-05-22 07:55:00,73.5,70.1,29.91,South,179,0.0,6.0,89,0.00,,,0.01,Wunderground v.1.15,2013-05-22 11:55:00,
2013-05-22 07:57:00,73.4,69.6,29.91,SE,130,0.0,6.0,88,0.00,,,0.01,Wunderground v.1.15,2013-05-22 11:57:00,
2013-05-22 07:59:00,73.3,69.9,29.92,ESE,120,1.0,6.0,89,0.00,,,0.01,Wunderground v.1.15,2013-05-22 11:59:00,
2013-05-22 08:00:00,73.2,69.8,29.92,SE,141,1.0,1.0,89,0.00,,,0.01,Wunderground v.1.15,2013-05-22 12:00:00,
2013-05-22 08:01:00,73.3,69.9,29.92,SE,141,1.0,1.0,89,0.00,,,0.01,Wunderground v.1.15,2013-05-22 12:01:00,
2013-05-22 08:03:00,73.2,69.8,29.92,South,184,1.0,1.0,89,0.00,,,0.01,Wunderground v.1.15,2013-05-22 12:03:00,
2013-05-22 08:05:00,73.2,69.8,29.92,SE,138,1.0,2.0,89,0.00,,,0.01,Wunderground v.1.15,2013-05-22 12:05:00,
2013-05-22 08:06:00,73.1,69.7,29.92,SSE,148,1.0,2.0,89,0.00,,,0.01,Wunderground v.1.15,2013-05-22 12:06:00,
2013-05-22 08:07:00,73.1,70.0,29.92,SSE,148,1.0,2.0,90,0.00,,,0.01,Wunderground v.1.15,2013-05-22 12:07:00,
2013-05-22 08:09:00,73.1,70.0,29.92,SSE,150,1.0,2.0,90,0.00,,,0.01,Wunderground v.1.15,2013-05-22 12:09:00,
2013-05-22 08:13:00,73.0,69.9,29.91,SSE,168,1.0,1.0,90,0.00,,,0.01,Wunderground v.1.15,2013-05-22 12:13:00,
2013-05-22 08:15:00,73.0,69.9,29.91,South,169,0.0,1.0,90,0.00,,,0.01,Wunderground v.1.15,2013-05-22 12:15:00,
2013-05-22 08:20:00,72.9,69.8,29.92,SW,219,0.0,0.0,90,0.00,,,0.01,Wunderground v.1.15,2013-05-22 12:20:00,
2013-05-22 08:22:00,72.8,69.7,29.92,SW,219,0.0,0.0,90,0.00,,,0.01,Wunderground v.1.15,2013-05-22 12:22:00,
2013-05-22 08:24:00,72.8,69.7,29.92,SW,219,0.0,0.0,90,0.00,,,0.01,Wunderground v.1.15,2013-05-22 12:24:00,
2013-05-22 08:27:00,72.9,69.8,29.91,SW,219,0.0,0.0,90,0.00,,,0.01,Wunderground v.1.15,2013-05-22 12:27:00,
2013-05-22 08:28:00,73.0,69.9,29.91,SW,219,0.0,0.0,90,0.00,,,0.01,Wunderground v.1.15,2013-05-22 12:28:00,
2013-05-22 08:30:00,73.3,70.2,29.91,SW,219,0.0,0.0,90,0.00,,,0.01,Wunderground v.1.15,2013-05-22 12:30:00,
2013-05-22 08:34:00,74.3,70.5,29.91,SW,219,0.0,6.0,88,0.00,,,0.01,Wunderground v.1.15,2013-05-22 12:34:00,
2013-05-22 08:37:00,75.2,71.4,29.92,SW,221,0.0,6.0,88,0.00,,,0.01,Wunderground v.1.15,2013-05-22 12:37:00,
2013-05-22 08:38:00,75.5,71.4,29.92,SW,221,0.0,6.0,87,0.00,,,0.01,Wunderground v.1.15,2013-05-22 12:38:00,
2013-05-22 08:40:00,76.1,71.6,29.92,SW,221,0.0,6.0,86,0.00,,,0.01,Wunderground v.1.15,2013-05-22 12:40:00,
2013-05-22 08:42:00,76.6,72.1,29.92,West,279,0.0,6.0,86,0.00,,,0.01,Wunderground v.1.15,2013-05-22 12:42:00,
2013-05-22 08:43:00,76.6,71.0,29.92,West,279,0.0,6.0,83,0.00,,,0.01,Wunderground v.1.15,2013-05-22 12:43:00,
2013-05-22 08:46:00,77.0,71.8,29.93,ESE,110,0.0,6.0,84,0.00,,,0.01,Wunderground v.1.15,2013-05-22 12:46:00,
2013-05-22 08:48:00,77.1,71.2,29.93,SE,143,0.0,6.0,82,0.00,,,0.01,Wunderground v.1.15,2013-05-22 12:48:00,
2013-05-22 08:51:00,77.6,71.3,29.93,SE,145,0.0,6.0,81,0.00,,,0.01,Wunderground v.1.15,2013-05-22 12:51:00,
2013-05-22 08:52:00,77.8,71.5,29.93,East,81,0.0,6.0,81,0.00,,,0.01,Wunderground v.1.15,2013-05-22 12:52:00,
2013-05-22 08:57:00,78.5,72.5,29.93,East,88,0.0,6.0,82,0.00,,,0.01,Wunderground v.1.15,2013-05-22 12:57:00,
2013-05-22 08:58:00,78.6,72.3,29.93,East,89,0.0,6.0,81,0.00,,,0.01,Wunderground v.1.15,2013-05-22 12:58:00,
2013-05-22 08:59:00,78.8,72.5,29.93,East,89,0.0,6.0,81,0.00,,,0.01,Wunderground v.1.15,2013-05-22 12:59:00,
2013-05-22 09:02:00,79.3,72.6,29.93,ENE,75,0.0,2.0,80,0.00,,,0.01,Wunderground v.1.15,2013-05-22 13:02:00,
2013-05-22 09:04:00,79.2,72.9,29.93,SE,137,0.0,2.0,81,0.00,,,0.01,Wunderground v.1.15,2013-05-22 13:04:00,
2013-05-22 09:05:00,79.2,72.9,29.93,ENE,76,0.0,2.0,81,0.00,,,0.01,Wunderground v.1.15,2013-05-22 13:05:00,
2013-05-22 09:07:00,78.8,72.5,29.94,East,79,1.0,2.0,81,0.00,,,0.01,Wunderground v.1.15,2013-05-22 13:07:00,
2013-05-22 09:09:00,78.5,72.5,29.94,ENE,72,1.0,2.0,82,0.00,,,0.01,Wunderground v.1.15,2013-05-22 13:09:00,
2013-05-22 09:11:00,78.4,72.8,29.94,East,94,1.0,1.0,83,0.00,,,0.01,Wunderground v.1.15,2013-05-22 13:11:00,
2013-05-22 09:12:00,78.4,72.4,29.94,SSE,161,1.0,1.0,82,0.00,,,0.01,Wunderground v.1.15,2013-05-22 13:12:00,
2013-05-22 09:15:00,78.5,72.2,29.94,ESE,113,1.0,1.0,81,0.00,,,0.01,Wunderground v.1.15,2013-05-22 13:15:00,
2013-05-22 09:16:00,78.6,72.3,29.94,ENE,72,0.0,2.0,81,0.00,,,0.01,Wunderground v.1.15,2013-05-22 13:16:00,
2013-05-22 09:19:00,78.6,72.6,29.94,ENE,70,0.0,2.0,82,0.00,,,0.01,Wunderground v.1.15,2013-05-22 13:19:00,
2013-05-22 09:20:00,78.6,72.6,29.94,ENE,70,0.0,0.0,82,0.00,,,0.01,Wunderground v.1.15,2013-05-22 13:20:00,
2013-05-22 09:21:00,78.7,72.4,29.94,SE,127,0.0,1.0,81,0.00,,,0.01,Wunderground v.1.15,2013-05-22 13:21:00,
2013-05-22 09:22:00,78.7,72.4,29.94,ENE,75,0.0,2.0,81,0.00,,,0.01,Wunderground v.1.15,2013-05-22 13:22:00,
2013-05-22 09:24:00,78.7,72.4,29.94,East,79,0.0,3.0,81,0.00,,,0.01,Wunderground v.1.15,2013-05-22 13:24:00,
2013-05-22 09:25:00,78.6,71.9,29.94,East,94,1.0,3.0,80,0.00,,,0.01,Wunderground v.1.15,2013-05-22 13:25:00,
2013-05-22 09:26:00,78.6,71.9,29.94,East,87,1.0,3.0,80,0.00,,,0.01,Wunderground v.1.15,2013-05-22 13:26:00,
2013-05-22 09:30:00,78.2,72.3,29.94,East,84,1.0,1.0,82,0.00,,,0.01,Wunderground v.1.15,2013-05-22 13:30:00,
2013-05-22 09:32:00,78.1,72.5,29.94,ESE,105,1.0,2.0,83,0.00,,,0.01,Wunderground v.1.15,2013-05-22 13:32:00,
2013-05-22 09:33:00,78.2,72.6,29.94,East,84,1.0,2.0,83,0.00,,,0.01,Wunderground v.1.15,2013-05-22 13:33:00,
2013-05-22 09:34:00,78.3,72.3,29.94,ENE,59,1.0,2.0,82,0.00,,,0.01,Wunderground v.1.15,2013-05-22 13:34:00,
2013-05-22 09:38:00,78.6,72.3,29.94,ESE,119,2.0,3.0,81,0.00,,,0.01,Wunderground v.1.15,2013-05-22 13:38:00,
2013-05-22 09:39:00,78.7,72.7,29.94,ENE,59,2.0,5.0,82,0.00,,,0.01,Wunderground v.1.15,2013-05-22 13:39:00,
2013-05-22 09:40:00,78.6,71.9,29.94,East,84,2.0,3.0,80,0.00,,,0.01,Wunderground v.1.15,2013-05-22 13:40:00,
2013-05-22 09:44:00,78.5,72.5,29.94,East,84,2.0,3.0,82,0.00,,,0.01,Wunderground v.1.15,2013-05-22 13:44:00,
2013-05-22 09:46:00,78.6,72.6,29.94,ENE,74,2.0,3.0,82,0.00,,,0.01,Wunderground v.1.15,2013-05-22 13:46:00,
2013-05-22 09:48:00,78.7,73.1,29.94,ENE,63,2.0,4.0,83,0.00,,,0.01,Wunderground v.1.15,2013-05-22 13:48:00,
2013-05-22 09:51:00,78.7,72.7,29.94,ENE,59,1.0,2.0,82,0.00,,,0.01,Wunderground v.1.15,2013-05-22 13:51:00,
2013-05-22 09:53:00,78.8,72.8,29.94,SE,136,2.0,3.0,82,0.00,,,0.01,Wunderground v.1.15,2013-05-22 13:53:00,
2013-05-22 09:54:00,78.8,72.8,29.94,ENE,73,2.0,3.0,82,0.00,,,0.01,Wunderground v.1.15,2013-05-22 13:54:00,
2013-05-22 09:57:00,78.7,73.1,29.94,SE,131,2.0,3.0,83,0.00,,,0.01,Wunderground v.1.15,2013-05-22 13:57:00,
2013-05-22 09:58:00,78.7,73.1,29.94,SE,127,2.0,3.0,83,0.00,,,0.01,Wunderground v.1.15,2013-05-22 13:58:00,
2013-05-22 09:59:00,78.6,73.0,29.94,ESE,120,2.0,5.0,83,0.00,,,0.01,Wunderground v.1.15,2013-05-22 13:59:00,
2013-05-22 10:01:00,78.5,72.5,29.94,SSE,166,3.0,4.0,82,0.00,,,0.01,Wunderground v.1.15,2013-05-22 14:01:00,
2013-05-22 10:02:00,78.5,72.9,29.95,NNE,18,3.0,4.0,83,0.00,,,0.01,Wunderground v.1.15,2013-05-22 14:02:00,
2013-05-22 10:04:00,78.4,72.8,29.94,East,97,3.0,5.0,83,0.00,,,0.01,Wunderground v.1.15,2013-05-22 14:04:00,
2013-05-22 10:06:00,78.4,72.8,29.95,ESE,107,3.0,5.0,83,0.00,,,0.01,Wunderground v.1.15,2013-05-22 14:06:00,
2013-05-22 10:10:00,78.3,73.1,29.95,ESE,122,3.0,3.0,84,0.00,,,0.01,Wunderground v.1.15,2013-05-22 14:10:00,
2013-05-22 10:12:00,78.4,73.2,29.95,ESE,119,3.0,4.0,84,0.00,,,0.01,Wunderground v.1.15,2013-05-22 14:12:00,
2013-05-22 10:13:00,78.4,72.8,29.95,SE,135,3.0,4.0,83,0.00,,,0.01,Wunderground v.1.15,2013-05-22 14:13:00,
2013-05-22 10:14:00,78.4,72.8,29.95,East,101,2.0,4.0,83,0.00,,,0.01,Wunderground v.1.15,2013-05-22 14:14:00,
2013-05-22 10:16:00,78.5,72.5,29.95,SE,130,2.0,4.0,82,0.00,,,0.01,Wunderground v.1.15,2013-05-22 14:16:00,
2013-05-22 10:18:00,78.5,72.2,29.95,ESE,122,2.0,5.0,81,0.00,,,0.01,Wunderground v.1.15,2013-05-22 14:18:00,
2013-05-22 10:21:00,78.4,72.1,29.95,SSW,199,2.0,5.0,81,0.00,,,0.01,Wunderground v.1.15,2013-05-22 14:21:00,
2013-05-22 10:22:00,78.4,72.1,29.95,SSE,155,3.0,5.0,81,0.00,,,0.01,Wunderground v.1.15,2013-05-22 14:22:00,
2013-05-22 10:24:00,78.4,72.1,29.95,ESE,102,3.0,5.0,81,0.00,,,0.01,Wunderground v.1.15,2013-05-22 14:24:00,
2013-05-22 10:25:00,78.4,72.1,29.95,SSE,148,3.0,5.0,81,0.00,,,0.01,Wunderground v.1.15,2013-05-22 14:25:00,
2013-05-22 10:27:00,78.3,72.0,29.95,SE,142,3.0,5.0,81,0.00,,,0.01,Wunderground v.1.15,2013-05-22 14:27:00,
2013-05-22 10:29:00,78.3,72.3,29.95,ESE,110,3.0,5.0,82,0.00,,,0.01,Wunderground v.1.15,2013-05-22 14:29:00,
2013-05-22 10:30:00,78.4,72.4,29.95,SE,145,3.0,3.0,82,0.00,,,0.01,Wunderground v.1.15,2013-05-22 14:30:00,
2013-05-22 10:32:00,78.7,72.7,29.95,South,169,2.0,5.0,82,0.00,,,0.01,Wunderground v.1.15,2013-05-22 14:32:00,
2013-05-22 10:35:00,78.9,72.9,29.95,SE,136,2.0,5.0,82,0.00,,,0.01,Wunderground v.1.15,2013-05-22 14:35:00,
2013-05-22 10:38:00,79.0,72.7,29.95,ESE,109,2.0,5.0,81,0.00,,,0.01,Wunderground v.1.15,2013-05-22 14:38:00,
2013-05-22 10:41:00,79.0,73.0,29.95,SE,128,2.0,5.0,82,0.00,,,0.01,Wunderground v.1.15,2013-05-22 14:41:00,
2013-05-22 10:42:00,79.0,73.0,29.95,ESE,121,2.0,5.0,82,0.00,,,0.01,Wunderground v.1.15,2013-05-22 14:42:00,
2013-05-22 10:44:00,79.3,73.3,29.94,SE,136,2.0,5.0,82,0.00,,,0.01,Wunderground v.1.15,2013-05-22 14:44:00,
2013-05-22 10:45:00,79.5,73.5,29.94,ESE,119,2.0,5.0,82,0.00,,,0.01,Wunderground v.1.15,2013-05-22 14:45:00,
2013-05-22 10:48:00,80.1,73.7,29.94,East,98,2.0,5.0,81,0.00,,,0.01,Wunderground v.1.15,2013-05-22 14:48:00,
2013-05-22 10:49:00,80.3,73.6,29.94,ESE,120,2.0,5.0,80,0.00,,,0.01,Wunderground v.1.15,2013-05-22 14:49:00,
2013-05-22 10:52:00,80.6,73.9,29.94,SE,142,1.0,5.0,80,0.00,,,0.01,Wunderground v.1.15,2013-05-22 14:52:00,
2013-05-22 10:53:00,80.7,73.6,29.94,SE,136,2.0,5.0,79,0.00,,,0.01,Wunderground v.1.15,2013-05-22 14:53:00,
2013-05-22 10:55:00,81.0,73.9,29.94,NE,54,2.0,5.0,79,0.00,,,0.01,Wunderground v.1.15,2013-05-22 14:55:00,
2013-05-22 10:56:00,81.2,73.7,29.94,ENE,67,1.0,5.0,78,0.00,,,0.01,Wunderground v.1.15,2013-05-22 14:56:00,
2013-05-22 10:58:00,81.4,73.9,29.94,SSE,166,1.0,5.0,78,0.00,,,0.01,Wunderground v.1.15,2013-05-22 14:58:00,
2013-05-22 11:01:00,81.8,73.9,29.94,ESE,117,1.0,2.0,77,0.00,,,0.01,Wunderground v.1.15,2013-05-22 15:01:00,
2013-05-22 11:02:00,82.0,74.1,29.94,ESE,108,1.0,2.0,77,0.00,,,0.01,Wunderground v.1.15,2013-05-22 15:02:00,
2013-05-22 11:03:00,82.2,74.3,29.94,ESE,108,1.0,2.0,77,0.00,,,0.01,Wunderground v.1.15,2013-05-22 15:03:00,
2013-05-22 11:05:00,82.6,75.0,29.94,WNW,288,1.0,2.0,78,0.00,,,0.01,Wunderground v.1.15,2013-05-22 15:05:00,
2013-05-22 11:07:00,82.8,74.1,29.94,WNW,296,1.0,2.0,75,0.00,,,0.01,Wunderground v.1.15,2013-05-22 15:07:00,
2013-05-22 11:08:00,83.0,75.0,29.94,SSW,202,1.0,3.0,77,0.00,,,0.01,Wunderground v.1.15,2013-05-22 15:08:00,
2013-05-22 11:11:00,83.7,74.5,29.94,ESE,115,1.0,3.0,74,0.00,,,0.01,Wunderground v.1.15,2013-05-22 15:11:00,
2013-05-22 11:14:00,84.1,74.1,29.94,SW,222,1.0,3.0,72,0.00,,,0.01,Wunderground v.1.15,2013-05-22 15:14:00,
2013-05-22 11:15:00,84.2,74.2,29.94,NW,307,1.0,3.0,72,0.00,,,0.01,Wunderground v.1.15,2013-05-22 15:15:00,
2013-05-22 11:16:00,84.2,74.6,29.94,NW,307,1.0,3.0,73,0.00,,,0.01,Wunderground v.1.15,2013-05-22 15:16:00,
2013-05-22 11:18:00,84.3,74.3,29.94,SE,125,1.0,3.0,72,0.00,,,0.01,Wunderground v.1.15,2013-05-22 15:18:00,
2013-05-22 11:20:00,84.5,74.5,29.94,East,82,1.0,1.0,72,0.00,,,0.01,Wunderground v.1.15,2013-05-22 15:20:00,
2013-05-22 11:21:00,84.6,74.6,29.94,SSE,155,1.0,2.0,72,0.00,,,0.01,Wunderground v.1.15,2013-05-22 15:21:00,
2013-05-22 11:22:00,84.7,74.3,29.94,SSE,162,1.0,2.0,71,0.00,,,0.01,Wunderground v.1.15,2013-05-22 15:22:00,
2013-05-22 11:26:00,85.3,74.0,29.93,East,92,1.0,2.0,69,0.00,,,0.01,Wunderground v.1.15,2013-05-22 15:26:00,
2013-05-22 11:27:00,85.4,74.5,29.93,East,82,1.0,2.0,70,0.00,,,0.01,Wunderground v.1.15,2013-05-22 15:27:00,
2013-05-22 11:28:00,85.6,74.7,29.93,ESE,115,1.0,2.0,70,0.00,,,0.01,Wunderground v.1.15,2013-05-22 15:28:00,
2013-05-22 11:31:00,86.4,74.1,29.93,SW,221,1.0,7.0,67,0.00,,,0.01,Wunderground v.1.15,2013-05-22 15:31:00,
2013-05-22 11:33:00,86.7,74.4,29.93,SE,132,1.0,7.0,67,0.00,,,0.01,Wunderground v.1.15,2013-05-22 15:33:00,
2013-05-22 11:36:00,86.6,74.8,29.93,SSW,194,1.0,7.0,68,0.00,,,0.01,Wunderground v.1.15,2013-05-22 15:36:00,
2013-05-22 11:37:00,86.6,75.6,29.93,SW,231,1.0,7.0,70,0.00,,,0.01,Wunderground v.1.15,2013-05-22 15:37:00,
2013-05-22 11:38:00,86.4,75.5,29.93,SW,214,1.0,7.0,70,0.00,,,0.01,Wunderground v.1.15,2013-05-22 15:38:00,
2013-05-22 11:40:00,86.1,74.3,29.94,West,276,2.0,7.0,68,0.00,,,0.01,Wunderground v.1.15,2013-05-22 15:40:00,
2013-05-22 11:43:00,85.5,74.6,29.94,SW,215,2.0,7.0,70,0.00,,,0.01,Wunderground v.1.15,2013-05-22 15:43:00,
2013-05-22 11:44:00,85.3,74.4,29.94,SW,221,2.0,7.0,70,0.00,,,0.01,Wunderground v.1.15,2013-05-22 15:44:00,
2013-05-22 11:47:00,85.0,73.7,29.94,NW,314,2.0,7.0,69,0.00,,,0.01,Wunderground v.1.15,2013-05-22 15:47:00,
2013-05-22 11:50:00,85.1,73.8,29.94,WSW,240,1.0,1.0,69,0.00,,,0.01,Wunderground v.1.15,2013-05-22 15:50:00,
2013-05-22 11:52:00,85.1,72.9,29.94,NW,310,1.0,7.0,67,0.00,,,0.01,Wunderground v.1.15,2013-05-22 15:52:00,
2013-05-22 11:54:00,84.9,72.7,29.94,West,279,1.0,7.0,67,0.00,,,0.01,Wunderground v.1.15,2013-05-22 15:54:00,
2013-05-22 11:55:00,84.9,74.0,29.94,WNW,298,1.0,7.0,70,0.00,,,0.01,Wunderground v.1.15,2013-05-22 15:55:00,
2013-05-22 11:56:00,85.0,74.1,29.94,NW,307,1.0,7.0,70,0.00,,,0.01,Wunderground v.1.15,2013-05-22 15:56:00,
2013-05-22 11:58:00,84.9,72.7,29.94,NW,307,1.0,7.0,67,0.00,,,0.01,Wunderground v.1.15,2013-05-22 15:58:00,
2013-05-22 12:00:00,84.5,73.6,29.94,SW,217,1.0,1.0,70,0.00,,,0.01,Wunderground v.1.15,2013-05-22 16:00:00,
2013-05-22 12:01:00,84.5,73.6,29.94,West,277,1.0,1.0,70,0.00,,,0.01,Wunderground v.1.15,2013-05-22 16:01:00,
2013-05-22 12:04:00,84.3,73.0,29.94,NW,313,0.0,1.0,69,0.00,,,0.01,Wunderground v.1.15,2013-05-22 16:04:00,
2013-05-22 12:05:00,84.4,73.5,29.94,NW,313,0.0,1.0,70,0.00,,,0.01,Wunderground v.1.15,2013-05-22 16:05:00,
2013-05-22 12:11:00,85.6,75.1,29.94,NE,46,0.0,1.0,71,0.00,,,0.01,Wunderground v.1.15,2013-05-22 16:11:00,
2013-05-22 12:12:00,85.7,73.9,29.94,ESE,113,0.0,3.0,68,0.00,,,0.01,Wunderground v.1.15,2013-05-22 16:12:00,
2013-05-22 12:15:00,86.5,74.2,29.94,ESE,116,1.0,3.0,67,0.00,,,0.01,Wunderground v.1.15,2013-05-22 16:15:00,
2013-05-22 12:16:00,86.7,75.3,29.94,ESE,107,1.0,3.0,69,0.00,,,0.01,Wunderground v.1.15,2013-05-22 16:16:00,
2013-05-22 12:19:00,87.6,73.9,29.94,SSE,160,1.0,4.0,64,0.00,,,0.01,Wunderground v.1.15,2013-05-22 16:19:00,
2013-05-22 12:21:00,87.8,73.6,29.94,ESE,120,2.0,2.0,63,0.00,,,0.01,Wunderground v.1.15,2013-05-22 16:21:00,
2013-05-22 12:22:00,87.8,74.1,29.94,ESE,103,2.0,2.0,64,0.00,,,0.01,Wunderground v.1.15,2013-05-22 16:22:00,
2013-05-22 12:27:00,88.1,73.0,29.93,ESE,116,1.0,2.0,61,0.00,,,0.01,Wunderground v.1.15,2013-05-22 16:27:00,
2013-05-22 12:28:00,88.3,75.0,29.93,SW,229,1.0,2.0,65,0.00,,,0.01,Wunderground v.1.15,2013-05-22 16:28:00,
2013-05-22 12:29:00,88.4,73.2,29.93,West,279,1.0,2.0,61,0.00,,,0.01,Wunderground v.1.15,2013-05-22 16:29:00,
2013-05-22 12:30:00,88.5,73.3,29.93,NNW,347,1.0,1.0,61,0.00,,,0.01,Wunderground v.1.15,2013-05-22 16:30:00,
2013-05-22 12:34:00,88.2,74.5,29.93,NW,319,0.0,6.0,64,0.00,,,0.01,Wunderground v.1.15,2013-05-22 16:34:00,
2013-05-22 12:35:00,88.1,73.9,29.93,WNW,296,1.0,6.0,63,0.00,,,0.01,Wunderground v.1.15,2013-05-22 16:35:00,
2013-05-22 12:36:00,88.2,74.5,29.93,NW,311,1.0,6.0,64,0.00,,,0.01,Wunderground v.1.15,2013-05-22 16:36:00,
2013-05-22 12:38:00,88.7,73.5,29.93,SSE,162,1.0,6.0,61,0.00,,,0.01,Wunderground v.1.15,2013-05-22 16:38:00,
2013-05-22 12:41:00,89.3,73.1,29.92,SE,141,1.0,7.0,59,0.00,,,0.01,Wunderground v.1.15,2013-05-22 16:41:00,
2013-05-22 12:42:00,89.5,73.3,29.92,SSE,148,1.0,7.0,59,0.00,,,0.01,Wunderground v.1.15,2013-05-22 16:42:00,
2013-05-22 12:43:00,89.7,73.0,29.92,SE,144,1.0,7.0,58,0.00,,,0.01,Wunderground v.1.15,2013-05-22 16:43:00,
2013-05-22 12:44:00,89.7,72.4,29.92,SSE,147,1.0,7.0,57,0.00,,,0.01,Wunderground v.1.15,2013-05-22 16:44:00,
2013-05-22 12:48:00,90.0,71.7,29.92,SE,129,2.0,7.0,55,0.00,,,0.01,Wunderground v.1.15,2013-05-22 16:48:00,
2013-05-22 12:49:00,90.0,71.7,29.92,South,181,2.0,7.0,55,0.00,,,0.01,Wunderground v.1.15,2013-05-22 16:49:00,
2013-05-22 12:50:00,90.1,72.8,29.92,SE,130,2.0,2.0,57,0.00,,,0.01,Wunderground v.1.15,2013-05-22 16:50:00,
2013-05-22 12:53:00,90.5,74.7,29.92,SSE,160,2.0,6.0,60,0.00,,,0.01,Wunderground v.1.15,2013-05-22 16:53:00,
2013-05-22 12:54:00,90.5,74.7,29.92,ENE,75,2.0,6.0,60,0.00,,,0.01,Wunderground v.1.15,2013-05-22 16:54:00,
2013-05-22 12:55:00,90.6,75.3,29.92,SSE,153,2.0,6.0,61,0.00,,,0.01,Wunderground v.1.15,2013-05-22 16:55:00,
2013-05-22 12:57:00,90.5,73.2,29.91,SSE,148,3.0,6.0,57,0.00,,,0.01,Wunderground v.1.15,2013-05-22 16:57:00,
2013-05-22 12:58:00,90.2,73.4,29.91,SSE,149,3.0,6.0,58,0.00,,,0.01,Wunderground v.1.15,2013-05-22 16:58:00,
2013-05-22 12:59:00,90.0,73.2,29.91,SSE,154,3.0,6.0,58,0.00,,,0.01,Wunderground v.1.15,2013-05-22 16:59:00,
2013-05-22 13:02:00,90.0,75.2,29.91,SW,231,3.0,6.0,62,0.00,,,0.01,Wunderground v.1.15,2013-05-22 17:02:00,
2013-05-22 13:05:00,89.7,73.5,29.91,South,173,3.0,6.0,59,0.00,,,0.01,Wunderground v.1.15,2013-05-22 17:05:00,
2013-05-22 13:07:00,89.8,73.6,29.92,ENE,69,3.0,6.0,59,0.00,,,0.01,Wunderground v.1.15,2013-05-22 17:07:00,
2013-05-22 13:08:00,89.8,74.1,29.91,South,179,3.0,6.0,60,0.00,,,0.01,Wunderground v.1.15,2013-05-22 17:08:00,
2013-05-22 13:13:00,90.1,72.3,29.91,SE,143,2.0,3.0,56,0.00,,,0.01,Wunderground v.1.15,2013-05-22 17:13:00,
2013-05-22 13:15:00,89.9,69.3,29.91,SSE,159,2.0,4.0,51,0.00,,,0.01,Wunderground v.1.15,2013-05-22 17:15:00,
2013-05-22 13:16:00,89.8,69.3,29.91,SSE,165,2.0,4.0,51,0.00,,,0.01,Wunderground v.1.15,2013-05-22 17:16:00,
2013-05-22 13:17:00,89.8,70.4,29.91,SSW,192,2.0,4.0,53,0.00,,,0.01,Wunderground v.1.15,2013-05-22 17:17:00,
2013-05-22 13:21:00,89.8,70.9,29.91,SSE,153,2.0,2.0,54,0.00,,,0.01,Wunderground v.1.15,2013-05-22 17:21:00,
2013-05-22 13:22:00,89.8,72.0,29.91,SE,142,2.0,4.0,56,0.00,,,0.01,Wunderground v.1.15,2013-05-22 17:22:00,
2013-05-22 13:23:00,89.8,72.0,29.91,ESE,113,2.0,4.0,56,0.00,,,0.01,Wunderground v.1.15,2013-05-22 17:23:00,
2013-05-22 13:27:00,89.3,74.6,29.91,SE,139,3.0,6.0,62,0.00,,,0.01,Wunderground v.1.15,2013-05-22 17:27:00,
2013-05-22 13:28:00,89.4,74.7,29.91,South,191,3.0,6.0,62,0.00,,,0.01,Wunderground v.1.15,2013-05-22 17:28:00,
2013-05-22 13:31:00,89.7,74.5,29.91,ESE,117,3.0,4.0,61,0.00,,,0.01,Wunderground v.1.15,2013-05-22 17:31:00,
2013-05-22 13:33:00,89.9,74.6,29.91,SE,126,3.0,4.0,61,0.00,,,0.01,Wunderground v.1.15,2013-05-22 17:33:00,
2013-05-22 13:34:00,90.2,75.4,29.91,East,84,3.0,4.0,62,0.00,,,0.01,Wunderground v.1.15,2013-05-22 17:34:00,
2013-05-22 13:36:00,89.9,74.2,29.91,ESE,120,2.0,4.0,60,0.00,,,0.01,Wunderground v.1.15,2013-05-22 17:36:00,
2013-05-22 13:37:00,89.9,74.2,29.91,SSE,164,3.0,4.0,60,0.00,,,0.01,Wunderground v.1.15,2013-05-22 17:37:00,
2013-05-22 13:42:00,89.0,74.8,29.91,SE,139,4.0,5.0,63,0.00,,,0.01,Wunderground v.1.15,2013-05-22 17:42:00,
2013-05-22 13:44:00,88.9,74.7,29.91,SE,125,4.0,5.0,63,0.00,,,0.01,Wunderground v.1.15,2013-05-22 17:44:00,
2013-05-22 13:45:00,88.7,74.5,29.91,ENE,75,4.0,5.0,63,0.00,,,0.01,Wunderground v.1.15,2013-05-22 17:45:00,
2013-05-22 13:49:00,88.2,74.5,29.90,ENE,68,4.0,8.0,64,0.00,,,0.01,Wunderground v.1.15,2013-05-22 17:49:00,
2013-05-22 13:51:00,88.2,74.5,29.90,East,96,4.0,6.0,64,0.00,,,0.01,Wunderground v.1.15,2013-05-22 17:51:00,
2013-05-22 13:52:00,88.3,74.6,29.90,South,182,4.0,6.0,64,0.00,,,0.01,Wunderground v.1.15,2013-05-22 17:52:00,
2013-05-22 13:56:00,88.4,75.1,29.90,NE,56,4.0,6.0,65,0.00,,,0.01,Wunderground v.1.15,2013-05-22 17:56:00,
2013-05-22 13:57:00,88.4,74.7,29.90,East,86,4.0,6.0,64,0.00,,,0.01,Wunderground v.1.15,2013-05-22 17:57:00,
2013-05-22 13:58:00,88.6,74.9,29.90,SE,141,4.0,6.0,64,0.00,,,0.01,Wunderground v.1.15,2013-05-22 17:58:00,
2013-05-22 14:02:00,88.8,75.0,29.90,SSE,148,4.0,6.0,64,0.00,,,0.01,Wunderground v.1.15,2013-05-22 18:02:00,
2013-05-22 14:03:00,88.6,74.4,29.90,SSE,167,4.0,6.0,63,0.00,,,0.01,Wunderground v.1.15,2013-05-22 18:03:00,
2013-05-22 14:04:00,88.5,74.8,29.90,ESE,105,4.0,6.0,64,0.00,,,0.01,Wunderground v.1.15,2013-05-22 18:04:00,
2013-05-22 14:05:00,88.4,75.1,29.90,SE,126,4.0,6.0,65,0.00,,,0.01,Wunderground v.1.15,2013-05-22 18:05:00,
2013-05-22 14:06:00,88.4,75.1,29.90,SE,134,4.0,6.0,65,0.00,,,0.01,Wunderground v.1.15,2013-05-22 18:06:00,
2013-05-22 14:08:00,88.3,75.0,29.90,East,87,4.0,6.0,65,0.00,,,0.01,Wunderground v.1.15,2013-05-22 18:08:00,
2013-05-22 14:09:00,88.1,74.8,29.90,ESE,113,4.0,7.0,65,0.00,,,0.01,Wunderground v.1.15,2013-05-22 18:09:00,
2013-05-22 14:14:00,87.8,75.0,29.90,SSE,158,5.0,6.0,66,0.00,,,0.01,Wunderground v.1.15,2013-05-22 18:14:00,
2013-05-22 14:15:00,87.8,75.0,29.90,SE,140,5.0,6.0,66,0.00,,,0.01,Wunderground v.1.15,2013-05-22 18:15:00,
2013-05-22 14:16:00,87.8,75.0,29.90,SE,138,4.0,6.0,66,0.00,,,0.01,Wunderground v.1.15,2013-05-22 18:16:00,
2013-05-22 14:19:00,88.0,75.2,29.91,SE,137,4.0,6.0,66,0.00,,,0.01,Wunderground v.1.15,2013-05-22 18:19:00,
2013-05-22 14:21:00,88.2,74.5,29.91,ESE,110,4.0,5.0,64,0.00,,,0.01,Wunderground v.1.15,2013-05-22 18:21:00,
2013-05-22 14:22:00,88.2,74.5,29.91,SE,131,4.0,5.0,64,0.00,,,0.01,Wunderground v.1.15,2013-05-22 18:22:00,
2013-05-22 14:26:00,88.4,75.6,29.91,South,171,3.0,5.0,66,0.00,,,0.01,Wunderground v.1.15,2013-05-22 18:26:00,
2013-05-22 14:27:00,88.5,74.8,29.91,South,172,3.0,5.0,64,0.00,,,0.01,Wunderground v.1.15,2013-05-22 18:27:00,
2013-05-22 14:30:00,88.2,74.9,29.92,SE,128,3.0,5.0,65,0.00,,,0.01,Wunderground v.1.15,2013-05-22 18:30:00,
2013-05-22 14:32:00,87.0,71.4,29.92,South,190,4.0,10.0,60,0.00,,,0.01,Wunderground v.1.15,2013-05-22 18:32:00,
2013-05-22 14:34:00,85.4,71.4,29.92,SSW,199,5.0,10.0,63,0.00,,,0.01,Wunderground v.1.15,2013-05-22 18:34:00,
2013-05-22 14:36:00,83.7,71.1,29.92,SE,143,5.0,10.0,66,0.00,,,0.01,Wunderground v.1.15,2013-05-22 18:36:00,
2013-05-22 14:37:00,83.0,70.9,29.92,South,170,5.0,10.0,67,0.00,,,0.01,Wunderground v.1.15,2013-05-22 18:37:00,
2013-05-22 14:39:00,81.6,70.4,29.91,SSE,157,5.0,10.0,69,0.00,,,0.01,Wunderground v.1.15,2013-05-22 18:39:00,
2013-05-22 14:40:00,81.2,70.1,29.91,SE,138,5.0,8.0,69,0.00,,,0.01,Wunderground v.1.15,2013-05-22 18:40:00,
2013-05-22 14:43:00,79.7,70.3,29.91,SSE,159,4.0,8.0,73,0.00,,,0.01,Wunderground v.1.15,2013-05-22 18:43:00,
2013-05-22 14:46:00,78.8,71.4,29.91,SSE,150,4.0,8.0,78,0.00,,,0.01,Wunderground v.1.15,2013-05-22 18:46:00,
2013-05-22 14:47:00,78.6,71.2,29.91,WNW,292,4.0,8.0,78,0.00,,,0.01,Wunderground v.1.15,2013-05-22 18:47:00,
2013-05-22 14:48:00,78.3,71.2,29.91,East,98,4.0,8.0,79,0.00,,,0.02,Wunderground v.1.15,2013-05-22 18:48:00,
2013-05-22 14:49:00,77.9,71.2,29.91,SE,135,3.0,8.0,80,0.43,,,0.03,Wunderground v.1.15,2013-05-22 18:49:00,
2013-05-22 14:50:00,77.5,70.8,29.91,East,94,3.0,8.0,80,0.92,,,0.05,Wunderground v.1.15,2013-05-22 18:50:00,
2013-05-22 14:53:00,76.4,70.1,29.91,SE,140,2.0,8.0,81,0.72,,,0.10,Wunderground v.1.15,2013-05-22 18:53:00,
2013-05-22 14:54:00,76.1,70.2,29.91,ESE,111,2.0,8.0,82,0.42,,,0.11,Wunderground v.1.15,2013-05-22 18:54:00,
2013-05-22 14:55:00,75.7,69.8,29.91,SE,134,2.0,8.0,82,0.49,,,0.11,Wunderground v.1.15,2013-05-22 18:55:00,
2013-05-22 14:56:00,75.4,70.2,29.91,South,172,2.0,8.0,84,0.49,,,0.12,Wunderground v.1.15,2013-05-22 18:56:00,
2013-05-22 15:00:00,74.6,70.5,29.91,South,184,3.0,3.0,87,0.11,,,0.12,Wunderground v.1.15,2013-05-22 19:00:00,
2013-05-22 15:01:00,74.5,70.4,29.91,ESE,122,3.0,3.0,87,0.11,,,0.13,Wunderground v.1.15,2013-05-22 19:01:00,
2013-05-22 15:02:00,74.4,70.6,29.91,SE,143,2.0,3.0,88,0.11,,,0.13,Wunderground v.1.15,2013-05-22 19:02:00,
2013-05-22 15:05:00,74.3,70.8,29.90,ESE,123,2.0,3.0,89,0.20,,,0.14,Wunderground v.1.15,2013-05-22 19:05:00,
2013-05-22 15:06:00,74.3,70.8,29.90,SE,131,2.0,3.0,89,0.28,,,0.15,Wunderground v.1.15,2013-05-22 19:06:00,
2013-05-22 15:08:00,74.2,70.7,29.90,ENE,58,1.0,3.0,89,0.23,,,0.15,Wunderground v.1.15,2013-05-22 19:08:00,
2013-05-22 15:11:00,74.1,71.0,29.91,NNW,340,1.0,5.0,90,0.11,,,0.15,Wunderground v.1.15,2013-05-22 19:11:00,
2013-05-22 15:12:00,74.0,70.9,29.92,NNW,338,2.0,5.0,90,0.09,,,0.15,Wunderground v.1.15,2013-05-22 19:12:00,
2013-05-22 15:17:00,73.3,69.9,29.92,NW,316,3.0,8.0,89,0.05,,,0.15,Wunderground v.1.15,2013-05-22 19:17:00,
2013-05-22 15:18:00,73.2,69.1,29.92,North,357,3.0,8.0,87,0.05,,,0.16,Wunderground v.1.15,2013-05-22 19:18:00,
2013-05-22 15:21:00,73.1,69.7,29.92,NNW,331,3.0,6.0,89,0.31,,,0.17,Wunderground v.1.15,2013-05-22 19:21:00,
2013-05-22 15:22:00,73.2,69.4,29.93,NW,326,3.0,6.0,88,0.21,,,0.17,Wunderground v.1.15,2013-05-22 19:22:00,
2013-05-22 15:23:00,73.2,69.8,29.93,North,5,3.0,6.0,89,0.16,,,0.18,Wunderground v.1.15,2013-05-22 19:23:00,
2013-05-22 15:24:00,73.2,69.8,29.93,NNW,348,3.0,6.0,89,0.16,,,0.18,Wunderground v.1.15,2013-05-22 19:24:00,
2013-05-22 15:28:00,73.2,69.8,29.93,NW,309,2.0,6.0,89,0.18,,,0.19,Wunderground v.1.15,2013-05-22 19:28:00,
2013-05-22 15:29:00,73.1,69.7,29.93,NNW,340,2.0,6.0,89,0.14,,,0.19,Wunderground v.1.15,2013-05-22 19:29:00,
2013-05-22 15:30:00,73.1,69.7,29.93,NW,319,2.0,3.0,89,0.11,,,0.19,Wunderground v.1.15,2013-05-22 19:30:00,
2013-05-22 15:35:00,73.1,70.0,29.92,ENE,66,1.0,17.0,90,0.06,,,0.19,Wunderground v.1.15,2013-05-22 19:35:00,
2013-05-22 15:36:00,73.1,70.3,29.92,ENE,66,1.0,17.0,91,0.05,,,0.19,Wunderground v.1.15,2013-05-22 19:36:00,
2013-05-22 15:39:00,73.2,70.4,29.91,ENE,66,1.0,17.0,91,0.04,,,0.19,Wunderground v.1.15,2013-05-22 19:39:00,
2013-05-22 15:41:00,73.3,70.5,29.91,ENE,66,0.0,17.0,91,0.04,,,0.19,Wunderground v.1.15,2013-05-22 19:41:00,
2013-05-22 15:42:00,73.3,70.5,29.91,NNW,341,0.0,17.0,91,0.00,,,0.19,Wunderground v.1.15,2013-05-22 19:42:00,
2013-05-22 15:43:00,73.3,70.8,29.92,NNW,341,0.0,17.0,92,0.00,,,0.19,Wunderground v.1.15,2013-05-22 19:43:00,
2013-05-22 15:44:00,73.3,70.8,29.91,NNW,341,0.0,17.0,92,0.00,,,0.19,Wunderground v.1.15,2013-05-22 19:44:00,
2013-05-22 15:47:00,73.4,70.9,29.91,NNW,341,0.0,17.0,92,0.00,,,0.19,Wunderground v.1.15,2013-05-22 19:47:00,
2013-05-22 15:49:00,73.5,71.0,29.92,NNW,341,0.0,17.0,92,0.00,,,0.20,Wunderground v.1.15,2013-05-22 19:49:00,
2013-05-22 15:52:00,73.5,71.0,29.92,NNE,19,0.0,17.0,92,0.00,,,0.20,Wunderground v.1.15,2013-05-22 19:52:00,
2013-05-22 15:54:00,73.5,71.4,29.92,North,354,0.0,17.0,93,0.00,,,0.20,Wunderground v.1.15,2013-05-22 19:54:00,
2013-05-22 15:55:00,73.5,71.4,29.92,NNW,328,0.0,17.0,93,0.00,,,0.20,Wunderground v.1.15,2013-05-22 19:55:00,
2013-05-22 15:56:00,73.5,71.4,29.92,NW,324,0.0,17.0,93,0.00,,,0.20,Wunderground v.1.15,2013-05-22 19:56:00,
2013-05-22 15:58:00,73.5,71.4,29.91,NNW,334,1.0,17.0,93,0.00,,,0.20,Wunderground v.1.15,2013-05-22 19:58:00,
2013-05-22 15:59:00,73.5,71.4,29.91,East,79,1.0,17.0,93,0.00,,,0.20,Wunderground v.1.15,2013-05-22 19:59:00,
2013-05-22 16:01:00,73.6,71.4,29.92,NW,324,1.0,1.0,93,0.00,,,0.20,Wunderground v.1.15,2013-05-22 20:01:00,
2013-05-22 16:03:00,73.5,71.4,29.92,NNW,335,1.0,3.0,93,0.00,,,0.20,Wunderground v.1.15,2013-05-22 20:03:00,
2013-05-22 16:04:00,73.5,71.4,29.92,NNW,329,1.0,3.0,93,0.00,,,0.20,Wunderground v.1.15,2013-05-22 20:04:00,
2013-05-22 16:05:00,73.5,71.4,29.92,NW,314,1.0,3.0,93,0.00,,,0.20,Wunderground v.1.15,2013-05-22 20:05:00,
2013-05-22 16:06:00,73.5,71.4,29.92,North,356,2.0,5.0,93,0.00,,,0.20,Wunderground v.1.15,2013-05-22 20:06:00,
2013-05-22 16:10:00,73.3,71.2,29.92,NNW,344,2.0,2.0,93,0.00,,,0.20,Wunderground v.1.15,2013-05-22 20:10:00,
2013-05-22 16:11:00,73.2,71.1,29.91,North,352,2.0,3.0,93,0.00,,,0.20,Wunderground v.1.15,2013-05-22 20:11:00,
2013-05-22 16:12:00,73.2,71.1,29.91,NNW,333,2.0,3.0,93,0.00,,,0.20,Wunderground v.1.15,2013-05-22 20:12:00,
2013-05-22 16:13:00,73.2,71.1,29.91,North,356,2.0,3.0,93,0.00,,,0.20,Wunderground v.1.15,2013-05-22 20:13:00,
2013-05-22 16:16:00,73.2,71.1,29.91,NNW,344,2.0,3.0,93,0.00,,,0.20,Wunderground v.1.15,2013-05-22 20:16:00,
2013-05-22 16:18:00,73.2,70.7,29.91,East,82,1.0,3.0,92,0.00,,,0.20,Wunderground v.1.15,2013-05-22 20:18:00,
2013-05-22 16:21:00,73.2,70.7,29.91,ENE,75,1.0,2.0,92,0.00,,,0.20,Wunderground v.1.15,2013-05-22 20:21:00,
2013-05-22 16:23:00,73.3,71.2,29.91,East,84,1.0,2.0,93,0.00,,,0.20,Wunderground v.1.15,2013-05-22 20:23:00,
2013-05-22 16:24:00,73.3,71.2,29.90,East,82,1.0,2.0,93,0.00,,,0.20,Wunderground v.1.15,2013-05-22 20:24:00,
2013-05-22 16:26:00,73.3,71.2,29.90,ENE,68,1.0,2.0,93,0.00,,,0.20,Wunderground v.1.15,2013-05-22 20:26:00,
2013-05-22 16:27:00,73.4,71.3,29.90,ENE,70,1.0,2.0,93,0.00,,,0.20,Wunderground v.1.15,2013-05-22 20:27:00,
2013-05-22 16:29:00,73.4,70.9,29.90,ENE,70,0.0,2.0,92,0.00,,,0.20,Wunderground v.1.15,2013-05-22 20:29:00,
2013-05-22 16:31:00,73.4,70.9,29.90,North,355,0.0,10.0,92,0.00,,,0.20,Wunderground v.1.15,2013-05-22 20:31:00,
2013-05-22 16:33:00,73.5,71.0,29.89,SE,134,0.0,10.0,92,0.00,,,0.20,Wunderground v.1.15,2013-05-22 20:33:00,
2013-05-22 16:34:00,73.5,71.0,29.89,SE,134,0.0,10.0,92,0.00,,,0.20,Wunderground v.1.15,2013-05-22 20:34:00,
2013-05-22 16:37:00,73.6,71.1,29.89,ESE,103,0.0,10.0,92,0.00,,,0.20,Wunderground v.1.15,2013-05-22 20:37:00,
2013-05-22 16:39:00,73.7,71.5,29.88,ESE,107,0.0,10.0,93,0.00,,,0.20,Wunderground v.1.15,2013-05-22 20:39:00,
2013-05-22 16:40:00,73.7,71.5,29.88,ENE,78,0.0,10.0,93,0.00,,,0.20,Wunderground v.1.15,2013-05-22 20:40:00,
2013-05-22 16:41:00,73.7,71.2,29.88,East,85,0.0,10.0,92,0.00,,,0.20,Wunderground v.1.15,2013-05-22 20:41:00,
2013-05-22 16:42:00,73.7,70.9,29.88,ENE,62,0.0,10.0,91,0.00,,,0.20,Wunderground v.1.15,2013-05-22 20:42:00,
2013-05-22 16:44:00,73.7,71.2,29.88,East,90,0.0,10.0,92,0.00,,,0.20,Wunderground v.1.15,2013-05-22 20:44:00,
2013-05-22 16:47:00,73.9,71.7,29.88,SE,127,0.0,10.0,93,0.00,,,0.20,Wunderground v.1.15,2013-05-22 20:47:00,
2013-05-22 16:48:00,73.9,71.4,29.88,SE,127,0.0,10.0,92,0.00,,,0.20,Wunderground v.1.15,2013-05-22 20:48:00,
2013-05-22 16:50:00,74.0,71.5,29.88,SE,139,0.0,10.0,92,0.00,,,0.20,Wunderground v.1.15,2013-05-22 20:50:00,
2013-05-22 16:51:00,74.0,71.5,29.88,East,82,0.0,10.0,92,0.00,,,0.20,Wunderground v.1.15,2013-05-22 20:51:00,
2013-05-22 16:53:00,74.0,71.5,29.88,East,94,0.0,10.0,92,0.00,,,0.20,Wunderground v.1.15,2013-05-22 20:53:00,
2013-05-22 16:56:00,74.0,71.2,29.88,ENE,67,1.0,10.0,91,0.00,,,0.20,Wunderground v.1.15,2013-05-22 20:56:00,
2013-05-22 16:57:00,74.0,71.5,29.88,ENE,67,1.0,10.0,92,0.00,,,0.20,Wunderground v.1.15,2013-05-22 20:57:00,
2013-05-22 16:58:00,74.0,71.5,29.88,East,94,1.0,10.0,92,0.00,,,0.20,Wunderground v.1.15,2013-05-22 20:58:00,
2013-05-22 16:59:00,74.1,71.6,29.88,East,84,1.0,10.0,92,0.00,,,0.20,Wunderground v.1.15,2013-05-22 20:59:00,
2013-05-22 17:01:00,74.1,71.6,29.88,East,81,1.0,1.0,92,0.00,,,0.20,Wunderground v.1.15,2013-05-22 21:01:00,
2013-05-22 17:03:00,74.1,71.6,29.89,East,91,1.0,1.0,92,0.00,,,0.20,Wunderground v.1.15,2013-05-22 21:03:00,
2013-05-22 17:06:00,74.2,71.7,29.88,East,87,1.0,2.0,92,0.00,,,0.20,Wunderground v.1.15,2013-05-22 21:06:00,
2013-05-22 17:07:00,74.2,71.7,29.88,ENE,75,1.0,2.0,92,0.00,,,0.20,Wunderground v.1.15,2013-05-22 21:07:00,
2013-05-22 17:08:00,74.3,71.8,29.88,ENE,75,1.0,2.0,92,0.00,,,0.20,Wunderground v.1.15,2013-05-22 21:08:00,
2013-05-22 17:09:00,74.3,71.8,29.89,ENE,75,1.0,2.0,92,0.00,,,0.20,Wunderground v.1.15,2013-05-22 21:09:00,
2013-05-22 17:13:00,74.4,71.9,29.88,ENE,70,1.0,1.0,92,0.00,,,0.20,Wunderground v.1.15,2013-05-22 21:13:00,
2013-05-22 17:14:00,74.4,71.9,29.88,NE,48,1.0,1.0,92,0.00,,,0.20,Wunderground v.1.15,2013-05-22 21:14:00,
2013-05-22 17:15:00,74.4,71.9,29.88,East,84,1.0,2.0,92,0.00,,,0.20,Wunderground v.1.15,2013-05-22 21:15:00,
2013-05-22 17:19:00,74.5,72.0,29.88,East,93,1.0,2.0,92,0.00,,,0.20,Wunderground v.1.15,2013-05-22 21:19:00,
2013-05-22 17:21:00,74.6,72.1,29.88,ENE,77,1.0,1.0,92,0.00,,,0.20,Wunderground v.1.15,2013-05-22 21:21:00,
2013-05-22 17:22:00,74.6,72.1,29.88,East,84,1.0,1.0,92,0.00,,,0.20,Wunderground v.1.15,2013-05-22 21:22:00,
2013-05-22 17:24:00,74.7,72.2,29.89,ENE,76,1.0,1.0,92,0.00,,,0.20,Wunderground v.1.15,2013-05-22 21:24:00,
2013-05-22 17:25:00,74.8,72.3,29.89,ENE,76,1.0,1.0,92,0.00,,,0.20,Wunderground v.1.15,2013-05-22 21:25:00,
2013-05-22 17:27:00,74.9,72.4,29.89,NNW,334,1.0,1.0,92,0.00,,,0.20,Wunderground v.1.15,2013-05-22 21:27:00,
2013-05-22 17:29:00,74.9,72.4,29.89,NNW,345,1.0,1.0,92,0.00,,,0.20,Wunderground v.1.15,2013-05-22 21:29:00,
2013-05-22 17:32:00,75.0,72.5,29.89,ENE,60,0.0,5.0,92,0.00,,,0.20,Wunderground v.1.15,2013-05-22 21:32:00,
2013-05-22 17:33:00,75.0,72.5,29.89,NW,326,0.0,5.0,92,0.00,,,0.20,Wunderground v.1.15,2013-05-22 21:33:00,
2013-05-22 17:38:00,75.0,72.5,29.89,NW,314,1.0,5.0,92,0.00,,,0.20,Wunderground v.1.15,2013-05-22 21:38:00,
2013-05-22 17:39:00,75.0,72.5,29.89,NW,315,1.0,5.0,92,0.00,,,0.20,Wunderground v.1.15,2013-05-22 21:39:00,
2013-05-22 17:40:00,75.0,72.5,29.89,NW,320,1.0,5.0,92,0.00,,,0.20,Wunderground v.1.15,2013-05-22 21:40:00,
2013-05-22 17:44:00,75.1,72.9,29.89,NW,312,1.0,5.0,93,0.00,,,0.20,Wunderground v.1.15,2013-05-22 21:44:00,
2013-05-22 17:45:00,75.1,72.6,29.90,NNW,336,1.0,5.0,92,0.00,,,0.20,Wunderground v.1.15,2013-05-22 21:45:00,
2013-05-22 17:46:00,75.1,72.6,29.90,NNW,330,1.0,5.0,92,0.00,,,0.20,Wunderground v.1.15,2013-05-22 21:46:00,
2013-05-22 17:48:00,75.1,72.6,29.90,NNW,328,1.0,5.0,92,0.00,,,0.20,Wunderground v.1.15,2013-05-22 21:48:00,
2013-05-22 17:49:00,75.1,72.6,29.90,NW,324,1.0,5.0,92,0.00,,,0.20,Wunderground v.1.15,2013-05-22 21:49:00,
2013-05-22 17:53:00,75.1,72.9,29.90,NNE,16,1.0,5.0,93,0.00,,,0.20,Wunderground v.1.15,2013-05-22 21:53:00,
2013-05-22 17:55:00,75.1,72.6,29.90,ENE,70,1.0,5.0,92,0.00,,,0.20,Wunderground v.1.15,2013-05-22 21:55:00,
2013-05-22 17:59:00,75.2,72.7,29.90,East,101,0.0,5.0,92,0.00,,,0.20,Wunderground v.1.15,2013-05-22 21:59:00,
2013-05-22 18:00:00,75.3,72.8,29.90,East,89,0.0,1.0,92,0.00,,,0.20,Wunderground v.1.15,2013-05-22 22:00:00,
2013-05-22 18:02:00,75.3,72.8,29.90,East,84,0.0,1.0,92,0.00,,,0.20,Wunderground v.1.15,2013-05-22 22:02:00,
2013-05-22 18:03:00,75.2,72.7,29.90,East,84,0.0,1.0,92,0.00,,,0.20,Wunderground v.1.15,2013-05-22 22:03:00,
2013-05-22 18:04:00,75.3,72.8,29.90,East,84,0.0,1.0,92,0.00,,,0.20,Wunderground v.1.15,2013-05-22 22:04:00,
2013-05-22 18:06:00,75.3,72.8,29.90,NNE,29,0.0,1.0,92,0.00,,,0.20,Wunderground v.1.15,2013-05-22 22:06:00,
2013-05-22 18:08:00,75.3,72.8,29.90,NNE,17,0.0,1.0,92,0.00,,,0.20,Wunderground v.1.15,2013-05-22 22:08:00,
2013-05-22 18:09:00,75.3,72.8,29.90,ENE,72,0.0,1.0,92,0.00,,,0.20,Wunderground v.1.15,2013-05-22 22:09:00,
2013-05-22 18:10:00,75.3,72.8,29.90,ENE,72,0.0,0.0,92,0.00,,,0.20,Wunderground v.1.15,2013-05-22 22:10:00,
2013-05-22 18:11:00,75.3,72.8,29.90,ENE,72,0.0,0.0,92,0.00,,,0.20,Wunderground v.1.15,2013-05-22 22:11:00,
2013-05-22 18:14:00,75.4,72.9,29.90,East,98,0.0,2.0,92,0.00,,,0.21,Wunderground v.1.15,2013-05-22 22:14:00,
2013-05-22 18:15:00,75.4,72.9,29.90,East,87,0.0,2.0,92,0.00,,,0.21,Wunderground v.1.15,2013-05-22 22:15:00,
2013-05-22 18:16:00,75.4,72.9,29.90,East,88,0.0,2.0,92,0.00,,,0.21,Wunderground v.1.15,2013-05-22 22:16:00,
2013-05-22 18:21:00,75.5,73.0,29.90,ENE,68,0.0,0.0,92,0.00,,,0.21,Wunderground v.1.15,2013-05-22 22:21:00,
2013-05-22 18:22:00,75.6,73.1,29.90,East,82,0.0,0.0,92,0.00,,,0.21,Wunderground v.1.15,2013-05-22 22:22:00,
2013-05-22 18:23:00,75.5,73.0,29.91,ENE,65,0.0,0.0,92,0.00,,,0.21,Wunderground v.1.15,2013-05-22 22:23:00,
2013-05-22 18:25:00,75.5,73.0,29.91,ENE,76,0.0,0.0,92,0.00,,,0.21,Wunderground v.1.15,2013-05-22 22:25:00,
2013-05-22 18:27:00,75.5,73.0,29.91,East,82,0.0,0.0,92,0.00,,,0.21,Wunderground v.1.15,2013-05-22 22:27:00,
2013-05-22 18:28:00,75.5,73.0,29.91,NW,314,0.0,1.0,92,0.00,,,0.21,Wunderground v.1.15,2013-05-22 22:28:00,
2013-05-22 18:31:00,75.5,73.0,29.92,NW,314,0.0,3.0,92,0.00,,,0.21,Wunderground v.1.15,2013-05-22 22:31:00,
2013-05-22 18:32:00,75.5,73.0,29.91,NW,325,1.0,3.0,92,0.00,,,0.21,Wunderground v.1.15,2013-05-22 22:32:00,
2013-05-22 18:38:00,75.6,73.1,29.91,ENE,69,1.0,3.0,92,1.00,,,0.27,Wunderground v.1.15,2013-05-22 22:38:00,
2013-05-22 18:40:00,75.5,73.3,29.91,NE,51,1.0,3.0,93,0.44,,,0.29,Wunderground v.1.15,2013-05-22 22:40:00,
2013-05-22 18:42:00,75.5,73.3,29.91,NW,315,1.0,3.0,93,0.24,,,0.29,Wunderground v.1.15,2013-05-22 22:42:00,
2013-05-22 18:43:00,75.5,73.3,29.91,NW,319,1.0,3.0,93,0.19,,,0.29,Wunderground v.1.15,2013-05-22 22:43:00,
2013-05-22 18:44:00,75.4,73.2,29.91,NNW,330,1.0,3.0,93,0.14,,,0.29,Wunderground v.1.15,2013-05-22 22:44:00,
2013-05-22 18:45:00,75.4,73.6,29.91,NW,326,1.0,3.0,94,0.12,,,0.29,Wunderground v.1.15,2013-05-22 22:45:00,
2013-05-22 18:46:00,75.3,73.5,29.91,NNW,342,2.0,3.0,94,0.09,,,0.29,Wunderground v.1.15,2013-05-22 22:46:00,
2013-05-22 18:48:00,75.3,73.5,29.91,NW,316,2.0,3.0,94,0.07,,,0.29,Wunderground v.1.15,2013-05-22 22:48:00,
2013-05-22 18:49:00,75.3,73.5,29.91,East,96,2.0,3.0,94,0.07,,,0.30,Wunderground v.1.15,2013-05-22 22:49:00,
2013-05-22 18:54:00,75.3,73.5,29.91,NNE,30,1.0,3.0,94,0.20,,,0.31,Wunderground v.1.15,2013-05-22 22:54:00,
2013-05-22 18:56:00,75.3,73.5,29.91,NW,314,0.0,3.0,94,0.20,,,0.32,Wunderground v.1.15,2013-05-22 22:56:00,
2013-05-22 18:58:00,75.3,73.5,29.91,ENE,75,0.0,3.0,94,0.16,,,0.32,Wunderground v.1.15,2013-05-22 22:58:00,
2013-05-22 18:59:00,75.2,73.0,29.91,ENE,75,0.0,3.0,93,0.13,,,0.32,Wunderground v.1.15,2013-05-22 22:59:00,
2013-05-22 19:00:00,75.2,73.4,29.91,ENE,77,0.0,0.0,94,0.10,,,0.32,Wunderground v.1.15,2013-05-22 23:00:00,
2013-05-22 19:03:00,75.2,73.4,29.90,ENE,77,0.0,2.0,94,0.07,,,0.32,Wunderground v.1.15,2013-05-22 23:03:00,
2013-05-22 19:07:00,75.2,73.0,29.90,East,96,1.0,3.0,93,0.05,,,0.32,Wunderground v.1.15,2013-05-22 23:07:00,
2013-05-22 19:08:00,75.3,73.1,29.90,East,97,1.0,3.0,93,0.04,,,0.32,Wunderground v.1.15,2013-05-22 23:08:00,
2013-05-22 19:10:00,75.3,73.1,29.90,East,84,1.0,1.0,93,0.04,,,0.32,Wunderground v.1.15,2013-05-22 23:10:00,
2013-05-22 19:14:00,75.3,73.1,29.90,East,89,1.0,1.0,93,0.00,,,0.32,Wunderground v.1.15,2013-05-22 23:14:00,
2013-05-22 19:15:00,75.3,73.1,29.90,East,89,1.0,1.0,93,0.00,,,0.32,Wunderground v.1.15,2013-05-22 23:15:00,
2013-05-22 19:16:00,75.3,73.1,29.90,East,89,1.0,1.0,93,0.00,,,0.32,Wunderground v.1.15,2013-05-22 23:16:00,
2013-05-22 19:18:00,75.3,73.1,29.90,East,89,0.0,1.0,93,0.00,,,0.32,Wunderground v.1.15,2013-05-22 23:18:00,
2013-05-22 19:20:00,75.3,73.1,29.90,East,89,0.0,0.0,93,0.00,,,0.32,Wunderground v.1.15,2013-05-22 23:20:00,
2013-05-22 19:23:00,75.3,73.5,29.90,East,80,0.0,0.0,94,0.00,,,0.32,Wunderground v.1.15,2013-05-22 23:23:00,
2013-05-22 19:24:00,75.3,73.5,29.90,East,80,0.0,0.0,94,0.00,,,0.32,Wunderground v.1.15,2013-05-22 23:24:00,
2013-05-22 19:25:00,75.3,73.5,29.90,East,79,0.0,0.0,94,0.00,,,0.32,Wunderground v.1.15,2013-05-22 23:25:00,
2013-05-22 19:26:00,75.3,73.5,29.90,NNE,27,0.0,0.0,94,0.00,,,0.32,Wunderground v.1.15,2013-05-22 23:26:00,
2013-05-22 19:28:00,75.2,73.0,29.89,NNE,27,0.0,0.0,93,0.00,,,0.32,Wunderground v.1.15,2013-05-22 23:28:00,
2013-05-22 19:30:00,75.2,73.4,29.89,ENE,65,0.0,0.0,94,0.00,,,0.32,Wunderground v.1.15,2013-05-22 23:30:00,
2013-05-22 19:32:00,75.2,73.4,29.89,ENE,66,0.0,3.0,94,0.00,,,0.32,Wunderground v.1.15,2013-05-22 23:32:00,
2013-05-22 19:33:00,75.2,73.4,29.89,ENE,73,0.0,3.0,94,0.00,,,0.32,Wunderground v.1.15,2013-05-22 23:33:00,
2013-05-22 19:34:00,75.2,73.4,29.89,ENE,73,0.0,3.0,94,0.00,,,0.32,Wunderground v.1.15,2013-05-22 23:34:00,
2013-05-22 19:35:00,75.3,73.5,29.89,ENE,72,0.0,3.0,94,0.00,,,0.32,Wunderground v.1.15,2013-05-22 23:35:00,
2013-05-22 19:39:00,75.5,73.7,29.89,ENE,73,0.0,3.0,94,0.00,,,0.32,Wunderground v.1.15,2013-05-22 23:39:00,
2013-05-22 19:40:00,75.6,73.8,29.89,ENE,73,0.0,3.0,94,0.00,,,0.32,Wunderground v.1.15,2013-05-22 23:40:00,
2013-05-22 19:41:00,75.7,73.8,29.89,ENE,72,0.0,3.0,94,0.00,,,0.32,Wunderground v.1.15,2013-05-22 23:41:00,
2013-05-22 19:43:00,75.8,73.9,29.89,ENE,72,0.0,3.0,94,0.00,,,0.32,Wunderground v.1.15,2013-05-22 23:43:00,
2013-05-22 19:46:00,75.9,74.0,29.89,ENE,73,0.0,3.0,94,0.00,,,0.32,Wunderground v.1.15,2013-05-22 23:46:00,
2013-05-22 19:47:00,75.9,74.0,29.90,ENE,72,0.0,3.0,94,0.00,,,0.32,Wunderground v.1.15,2013-05-22 23:47:00,
2013-05-22 19:51:00,75.9,74.0,29.90,ESE,105,0.0,3.0,94,0.00,,,0.32,Wunderground v.1.15,2013-05-22 23:51:00,
2013-05-22 19:52:00,75.8,73.6,29.90,ESE,105,0.0,3.0,93,0.00,,,0.32,Wunderground v.1.15,2013-05-22 23:52:00,
2013-05-22 19:54:00,75.8,73.9,29.90,ENE,72,0.0,3.0,94,0.00,,,0.32,Wunderground v.1.15,2013-05-22 23:54:00,
2013-05-22 19:56:00,75.7,73.8,29.90,ENE,73,0.0,3.0,94,0.00,,,0.32,Wunderground v.1.15,2013-05-22 23:56:00,
2013-05-22 19:57:00,75.7,73.8,29.90,ENE,73,0.0,3.0,94,0.00,,,0.32,Wunderground v.1.15,2013-05-22 23:57:00,
2013-05-22 20:01:00,75.7,73.8,29.90,ENE,73,0.0,1.0,94,0.00,,,0.32,Wunderground v.1.15,2013-05-23 00:01:00,
2013-05-22 20:02:00,75.7,73.8,29.90,ENE,73,0.0,1.0,94,0.00,,,0.32,Wunderground v.1.15,2013-05-23 00:02:00,
2013-05-22 20:06:00,75.6,73.8,29.90,ENE,73,0.0,1.0,94,0.00,,,0.32,Wunderground v.1.15,2013-05-23 00:06:00,
2013-05-22 20:07:00,75.6,73.8,29.90,ENE,73,0.0,1.0,94,0.00,,,0.32,Wunderground v.1.15,2013-05-23 00:07:00,
2013-05-22 20:08:00,75.6,73.8,29.90,ENE,73,0.0,1.0,94,0.00,,,0.32,Wunderground v.1.15,2013-05-23 00:08:00,
2013-05-22 20:09:00,75.6,73.8,29.90,ENE,73,0.0,1.0,94,0.00,,,0.32,Wunderground v.1.15,2013-05-23 00:09:00,
2013-05-22 20:12:00,75.5,73.7,29.90,ENE,73,0.0,0.0,94,0.00,,,0.32,Wunderground v.1.15,2013-05-23 00:12:00,
2013-05-22 20:13:00,75.5,73.7,29.90,ENE,73,0.0,0.0,94,0.00,,,0.32,Wunderground v.1.15,2013-05-23 00:13:00,
2013-05-22 20:14:00,75.4,73.6,29.90,ENE,73,0.0,0.0,94,0.00,,,0.32,Wunderground v.1.15,2013-05-23 00:14:00,
2013-05-22 20:18:00,75.4,73.6,29.91,ENE,73,0.0,0.0,94,0.00,,,0.32,Wunderground v.1.15,2013-05-23 00:18:00,
2013-05-22 20:20:00,75.3,73.5,29.91,ENE,73,0.0,0.0,94,0.00,,,0.32,Wunderground v.1.15,2013-05-23 00:20:00,
2013-05-22 20:21:00,75.3,73.5,29.91,ENE,73,0.0,0.0,94,0.00,,,0.32,Wunderground v.1.15,2013-05-23 00:21:00,
2013-05-22 20:22:00,75.3,73.8,29.91,ENE,73,0.0,0.0,95,0.00,,,0.32,Wunderground v.1.15,2013-05-23 00:22:00,
2013-05-22 20:25:00,75.4,73.9,29.91,ENE,73,0.0,0.0,95,0.00,,,0.32,Wunderground v.1.15,2013-05-23 00:25:00,
2013-05-22 20:28:00,75.4,73.9,29.91,ENE,73,0.0,0.0,95,0.00,,,0.32,Wunderground v.1.15,2013-05-23 00:28:00,
2013-05-22 20:29:00,75.4,73.9,29.91,ENE,73,0.0,0.0,95,0.00,,,0.32,Wunderground v.1.15,2013-05-23 00:29:00,
2013-05-22 20:31:00,75.5,74.0,29.91,ENE,73,0.0,3.0,95,0.00,,,0.32,Wunderground v.1.15,2013-05-23 00:31:00,
2013-05-22 20:36:00,75.4,73.9,29.91,ENE,73,0.0,3.0,95,0.00,,,0.32,Wunderground v.1.15,2013-05-23 00:36:00,
2013-05-22 20:39:00,75.4,73.9,29.91,ENE,73,0.0,3.0,95,0.00,,,0.32,Wunderground v.1.15,2013-05-23 00:39:00,
2013-05-22 20:41:00,75.3,73.8,29.91,ENE,73,0.0,3.0,95,0.00,,,0.32,Wunderground v.1.15,2013-05-23 00:41:00,
2013-05-22 20:42:00,75.3,73.8,29.91,ENE,73,0.0,3.0,95,0.00,,,0.32,Wunderground v.1.15,2013-05-23 00:42:00,
2013-05-22 20:44:00,75.3,73.8,29.92,ENE,73,0.0,3.0,95,0.00,,,0.32,Wunderground v.1.15,2013-05-23 00:44:00,
2013-05-22 20:46:00,75.3,74.1,29.92,ENE,73,0.0,3.0,96,0.00,,,0.32,Wunderground v.1.15,2013-05-23 00:46:00,
2013-05-22 20:50:00,75.3,74.1,29.92,ENE,73,0.0,3.0,96,0.00,,,0.32,Wunderground v.1.15,2013-05-23 00:50:00,
2013-05-22 20:51:00,75.3,74.1,29.92,ENE,73,0.0,3.0,96,0.00,,,0.32,Wunderground v.1.15,2013-05-23 00:51:00,
2013-05-22 20:53:00,75.3,74.1,29.92,ENE,73,0.0,3.0,96,0.00,,,0.32,Wunderground v.1.15,2013-05-23 00:53:00,
2013-05-22 20:55:00,75.3,74.1,29.92,ENE,73,0.0,3.0,96,0.00,,,0.32,Wunderground v.1.15,2013-05-23 00:55:00,
2013-05-22 20:56:00,75.3,74.1,29.92,ENE,73,0.0,3.0,96,0.00,,,0.32,Wunderground v.1.15,2013-05-23 00:56:00,
2013-05-22 20:57:00,75.3,74.1,29.92,ENE,73,0.0,3.0,96,0.00,,,0.32,Wunderground v.1.15,2013-05-23 00:57:00,
2013-05-22 21:00:00,75.3,74.1,29.92,ENE,73,0.0,0.0,96,0.00,,,0.32,Wunderground v.1.15,2013-05-23 01:00:00,
2013-05-22 21:01:00,75.3,74.1,29.92,ENE,73,0.0,0.0,96,0.00,,,0.32,Wunderground v.1.15,2013-05-23 01:01:00,
2013-05-22 21:03:00,75.3,74.1,29.92,ENE,73,0.0,0.0,96,0.00,,,0.32,Wunderground v.1.15,2013-05-23 01:03:00,
2013-05-22 21:07:00,75.3,74.1,29.92,ENE,73,0.0,0.0,96,0.00,,,0.32,Wunderground v.1.15,2013-05-23 01:07:00,
2013-05-22 21:09:00,75.2,74.0,29.92,ENE,73,0.0,0.0,96,0.00,,,0.32,Wunderground v.1.15,2013-05-23 01:09:00,
2013-05-22 21:10:00,75.2,73.7,29.92,ENE,73,0.0,0.0,95,0.00,,,0.32,Wunderground v.1.15,2013-05-23 01:10:00,
2013-05-22 21:11:00,75.2,73.7,29.92,ENE,73,0.0,0.0,95,0.00,,,0.32,Wunderground v.1.15,2013-05-23 01:11:00,
2013-05-22 21:17:00,75.1,73.6,29.92,ENE,78,0.0,1.0,95,0.00,,,0.32,Wunderground v.1.15,2013-05-23 01:17:00,
2013-05-22 21:19:00,75.1,73.6,29.92,ENE,78,0.0,1.0,95,0.00,,,0.32,Wunderground v.1.15,2013-05-23 01:19:00,
2013-05-22 21:21:00,75.0,73.5,29.92,ENE,78,0.0,0.0,95,0.00,,,0.32,Wunderground v.1.15,2013-05-23 01:21:00,
2013-05-22 21:23:00,75.0,73.5,29.92,ENE,78,0.0,0.0,95,0.00,,,0.32,Wunderground v.1.15,2013-05-23 01:23:00,
2013-05-22 21:26:00,75.0,73.5,29.92,ESE,110,0.0,0.0,95,0.00,,,0.32,Wunderground v.1.15,2013-05-23 01:26:00,
2013-05-22 21:29:00,74.9,73.4,29.92,ESE,122,0.0,0.0,95,0.00,,,0.32,Wunderground v.1.15,2013-05-23 01:29:00,
2013-05-22 21:31:00,74.9,73.4,29.92,SE,127,0.0,2.0,95,0.00,,,0.32,Wunderground v.1.15,2013-05-23 01:31:00,
2013-05-22 21:32:00,74.8,73.0,29.91,SE,131,0.0,2.0,94,0.00,,,0.32,Wunderground v.1.15,2013-05-23 01:32:00,
2013-05-22 21:34:00,74.8,73.0,29.92,SE,134,0.0,2.0,94,0.00,,,0.32,Wunderground v.1.15,2013-05-23 01:34:00,
2013-05-22 21:35:00,74.8,73.0,29.92,SE,130,1.0,2.0,94,0.00,,,0.32,Wunderground v.1.15,2013-05-23 01:35:00,
2013-05-22 21:37:00,74.8,72.6,29.92,SE,133,1.0,2.0,93,0.00,,,0.32,Wunderground v.1.15,2013-05-23 01:37:00,
2013-05-22 21:39:00,74.8,72.3,29.92,SE,131,1.0,2.0,92,0.00,,,0.32,Wunderground v.1.15,2013-05-23 01:39:00,
2013-05-22 21:42:00,74.8,72.3,29.92,SE,146,1.0,2.0,92,0.00,,,0.32,Wunderground v.1.15,2013-05-23 01:42:00,
2013-05-22 21:43:00,74.8,72.0,29.92,SSE,160,1.0,2.0,91,0.00,,,0.32,Wunderground v.1.15,2013-05-23 01:43:00,
2013-05-22 21:47:00,74.9,72.1,29.92,SE,127,2.0,4.0,91,0.00,,,0.32,Wunderground v.1.15,2013-05-23 01:47:00,
2013-05-22 21:48:00,74.9,71.8,29.92,ESE,117,2.0,4.0,90,0.00,,,0.32,Wunderground v.1.15,2013-05-23 01:48:00,
2013-05-22 21:51:00,75.0,71.9,29.92,SE,137,2.0,4.0,90,0.00,,,0.32,Wunderground v.1.15,2013-05-23 01:51:00,
2013-05-22 21:53:00,75.1,72.0,29.92,ESE,113,2.0,4.0,90,0.00,,,0.32,Wunderground v.1.15,2013-05-23 01:53:00,
2013-05-22 21:54:00,75.1,72.0,29.92,ESE,114,2.0,4.0,90,0.00,,,0.32,Wunderground v.1.15,2013-05-23 01:54:00,
2013-05-22 21:57:00,75.1,72.0,29.91,SE,128,2.0,4.0,90,0.00,,,0.32,Wunderground v.1.15,2013-05-23 01:57:00,
2013-05-22 22:00:00,75.0,71.9,29.92,SE,128,1.0,1.0,90,0.00,,,0.32,Wunderground v.1.15,2013-05-23 02:00:00,
2013-05-22 22:01:00,74.9,71.8,29.92,SE,128,1.0,1.0,90,0.00,,,0.32,Wunderground v.1.15,2013-05-23 02:01:00,
2013-05-22 22:03:00,74.9,71.8,29.92,SE,128,0.0,1.0,90,0.00,,,0.32,Wunderground v.1.15,2013-05-23 02:03:00,
2013-05-22 22:05:00,74.8,71.7,29.92,SE,128,0.0,1.0,90,0.00,,,0.32,Wunderground v.1.15,2013-05-23 02:05:00,
2013-05-22 22:06:00,74.8,72.0,29.92,SE,128,0.0,1.0,91,0.00,,,0.32,Wunderground v.1.15,2013-05-23 02:06:00,
2013-05-22 22:07:00,74.7,71.9,29.92,SE,128,0.0,1.0,91,0.00,,,0.32,Wunderground v.1.15,2013-05-23 02:07:00,
2013-05-22 22:09:00,74.6,71.8,29.92,SE,128,0.0,1.0,91,0.00,,,0.32,Wunderground v.1.15,2013-05-23 02:09:00,
2013-05-22 22:12:00,74.5,72.0,29.92,SE,128,0.0,0.0,92,0.00,,,0.32,Wunderground v.1.15,2013-05-23 02:12:00,
2013-05-22 22:15:00,74.4,71.6,29.92,SE,128,0.0,0.0,91,0.00,,,0.32,Wunderground v.1.15,2013-05-23 02:15:00,
2013-05-22 22:18:00,74.3,71.8,29.92,SE,129,0.0,0.0,92,0.00,,,0.32,Wunderground v.1.15,2013-05-23 02:18:00,
2013-05-22 22:20:00,74.3,71.8,29.92,SE,128,0.0,0.0,92,0.00,,,0.32,Wunderground v.1.15,2013-05-23 02:20:00,
2013-05-22 22:22:00,74.2,71.7,29.92,SE,128,0.0,0.0,92,0.00,,,0.32,Wunderground v.1.15,2013-05-23 02:22:00,
2013-05-22 22:24:00,74.1,71.9,29.93,SE,128,0.0,0.0,93,0.00,,,0.32,Wunderground v.1.15,2013-05-23 02:24:00,
2013-05-22 22:25:00,74.1,71.9,29.93,SE,128,0.0,0.0,93,0.00,,,0.32,Wunderground v.1.15,2013-05-23 02:25:00,
2013-05-22 22:27:00,74.0,71.8,29.93,SE,129,0.0,0.0,93,0.00,,,0.32,Wunderground v.1.15,2013-05-23 02:27:00,
2013-05-22 22:29:00,74.0,71.8,29.93,SE,128,0.0,0.0,93,0.00,,,0.32,Wunderground v.1.15,2013-05-23 02:29:00,
2013-05-22 22:31:00,74.0,71.8,29.93,SE,128,0.0,3.0,93,0.00,,,0.32,Wunderground v.1.15,2013-05-23 02:31:00,
2013-05-22 22:33:00,74.0,71.8,29.93,SE,128,0.0,3.0,93,0.00,,,0.32,Wunderground v.1.15,2013-05-23 02:33:00,
2013-05-22 22:34:00,74.0,71.8,29.93,SE,128,0.0,3.0,93,0.00,,,0.32,Wunderground v.1.15,2013-05-23 02:34:00,
2013-05-22 22:37:00,74.0,71.8,29.93,SE,129,0.0,3.0,93,0.00,,,0.32,Wunderground v.1.15,2013-05-23 02:37:00,
2013-05-22 22:39:00,74.0,71.8,29.93,SE,129,0.0,3.0,93,0.00,,,0.32,Wunderground v.1.15,2013-05-23 02:39:00,
2013-05-22 22:43:00,73.9,71.7,29.93,SE,129,0.0,3.0,93,0.00,,,0.32,Wunderground v.1.15,2013-05-23 02:43:00,
2013-05-22 22:47:00,73.9,71.7,29.94,SE,128,0.0,3.0,93,0.00,,,0.32,Wunderground v.1.15,2013-05-23 02:47:00,
2013-05-22 22:48:00,73.9,71.7,29.93,SE,128,0.0,3.0,93,0.00,,,0.32,Wunderground v.1.15,2013-05-23 02:48:00,
2013-05-22 22:50:00,73.9,71.7,29.93,SE,128,0.0,3.0,93,0.00,,,0.32,Wunderground v.1.15,2013-05-23 02:50:00,
2013-05-22 22:53:00,73.9,71.7,29.94,SE,128,0.0,3.0,93,0.00,,,0.32,Wunderground v.1.15,2013-05-23 02:53:00,
2013-05-22 22:55:00,74.0,71.8,29.93,SE,128,0.0,3.0,93,0.00,,,0.32,Wunderground v.1.15,2013-05-23 02:55:00,
2013-05-22 22:57:00,74.0,71.8,29.93,SE,128,0.0,3.0,93,0.00,,,0.32,Wunderground v.1.15,2013-05-23 02:57:00,
2013-05-22 23:00:00,74.0,71.8,29.93,SE,128,0.0,0.0,93,0.00,,,0.32,Wunderground v.1.15,2013-05-23 03:00:00,
2013-05-22 23:03:00,74.0,71.8,29.93,SE,128,0.0,0.0,93,0.00,,,0.32,Wunderground v.1.15,2013-05-23 03:03:00,
2013-05-22 23:04:00,74.0,71.8,29.94,SE,128,0.0,0.0,93,0.00,,,0.32,Wunderground v.1.15,2013-05-23 03:04:00,
2013-05-22 23:05:00,74.0,71.8,29.94,SE,128,0.0,0.0,93,0.00,,,0.32,Wunderground v.1.15,2013-05-23 03:05:00,
2013-05-22 23:06:00,74.0,71.8,29.94,SE,128,0.0,0.0,93,0.00,,,0.32,Wunderground v.1.15,2013-05-23 03:06:00,
2013-05-22 23:08:00,73.9,71.7,29.94,SE,128,0.0,0.0,93,0.00,,,0.32,Wunderground v.1.15,2013-05-23 03:08:00,
2013-05-22 23:10:00,73.9,71.7,29.94,SE,128,0.0,0.0,93,0.00,,,0.32,Wunderground v.1.15,2013-05-23 03:10:00,
2013-05-22 23:11:00,73.9,71.7,29.94,SE,128,0.0,0.0,93,0.00,,,0.32,Wunderground v.1.15,2013-05-23 03:11:00,
2013-05-22 23:13:00,73.8,71.6,29.94,SE,128,0.0,0.0,93,0.00,,,0.32,Wunderground v.1.15,2013-05-23 03:13:00,
2013-05-22 23:16:00,73.9,72.1,29.94,SE,128,0.0,0.0,94,0.00,,,0.32,Wunderground v.1.15,2013-05-23 03:16:00,
2013-05-22 23:18:00,73.9,72.1,29.94,SE,128,0.0,0.0,94,0.00,,,0.32,Wunderground v.1.15,2013-05-23 03:18:00,
2013-05-22 23:20:00,73.9,72.1,29.94,SE,128,0.0,0.0,94,0.00,,,0.32,Wunderground v.1.15,2013-05-23 03:20:00,
2013-05-22 23:21:00,73.9,72.1,29.94,SE,128,0.0,0.0,94,0.00,,,0.32,Wunderground v.1.15,2013-05-23 03:21:00,
2013-05-22 23:23:00,73.8,72.0,29.93,SE,128,0.0,0.0,94,0.00,,,0.32,Wunderground v.1.15,2013-05-23 03:23:00,
2013-05-22 23:26:00,73.8,72.3,29.94,SE,128,0.0,0.0,95,0.00,,,0.32,Wunderground v.1.15,2013-05-23 03:26:00,
2013-05-22 23:29:00,73.9,72.4,29.94,SE,128,0.0,0.0,95,0.00,,,0.32,Wunderground v.1.15,2013-05-23 03:29:00,
2013-05-22 23:30:00,73.9,72.4,29.94,SE,128,0.0,0.0,95,0.00,,,0.32,Wunderground v.1.15,2013-05-23 03:30:00,
2013-05-22 23:31:00,73.9,72.4,29.94,SE,128,0.0,1.0,95,0.00,,,0.32,Wunderground v.1.15,2013-05-23 03:31:00,
2013-05-22 23:32:00,73.9,72.4,29.94,SE,128,0.0,1.0,95,0.00,,,0.32,Wunderground v.1.15,2013-05-23 03:32:00,
2013-05-22 23:33:00,73.9,72.4,29.94,SE,128,0.0,1.0,95,0.00,,,0.32,Wunderground v.1.15,2013-05-23 03:33:00,
2013-05-22 23:35:00,73.9,72.4,29.94,SE,128,0.0,1.0,95,0.00,,,0.32,Wunderground v.1.15,2013-05-23 03:35:00,
2013-05-22 23:37:00,73.9,72.4,29.94,SE,128,0.0,1.0,95,0.00,,,0.32,Wunderground v.1.15,2013-05-23 03:37:00,
2013-05-22 23:38:00,73.9,72.4,29.93,SE,128,0.0,1.0,95,0.00,,,0.32,Wunderground v.1.15,2013-05-23 03:38:00,
2013-05-22 23:40:00,73.9,72.4,29.94,SE,128,0.0,1.0,95,0.00,,,0.32,Wunderground v.1.15,2013-05-23 03:40:00,
2013-05-22 23:41:00,73.9,72.4,29.93,SE,128,0.0,1.0,95,0.00,,,0.32,Wunderground v.1.15,2013-05-23 03:41:00,
2013-05-22 23:44:00,73.8,72.3,29.94,SE,128,0.0,1.0,95,0.00,,,0.32,Wunderground v.1.15,2013-05-23 03:44:00,
2013-05-22 23:45:00,73.7,72.2,29.93,SE,128,0.0,1.0,95,0.00,,,0.32,Wunderground v.1.15,2013-05-23 03:45:00,
2013-05-22 23:46:00,73.7,72.2,29.93,SE,128,0.0,1.0,95,0.00,,,0.32,Wunderground v.1.15,2013-05-23 03:46:00,
2013-05-22 23:47:00,73.7,72.2,29.93,SE,128,0.0,1.0,95,0.00,,,0.32,Wunderground v.1.15,2013-05-23 03:47:00,
2013-05-22 23:50:00,73.5,72.0,29.93,SE,128,0.0,1.0,95,0.00,,,0.32,Wunderground v.1.15,2013-05-23 03:50:00,
2013-05-22 23:52:00,73.6,72.4,29.93,SE,128,0.0,1.0,96,0.00,,,0.32,Wunderground v.1.15,2013-05-23 03:52:00,
2013-05-22 23:54:00,73.8,72.6,29.93,SE,128,0.0,1.0,96,0.00,,,0.32,Wunderground v.1.15,2013-05-23 03:54:00,
2013-05-22 23:55:00,73.8,72.6,29.93,SE,128,0.0,1.0,96,0.00,,,0.32,Wunderground v.1.15,2013-05-23 03:55:00,
2013-05-22 23:56:00,73.9,72.7,29.93,SE,128,0.0,1.0,96,0.00,,,0.32,Wunderground v.1.15,2013-05-23 03:56:00,